| time (UTC) | temp F | wind direction | speed knots | gust knots | rain 1hr in | rain 24hr in | rain mn in | humidity % | barometer mb |
| 20260502232534 | 43 | 343 | 0.9 | 2.6 | 0.02 | 0.04 | 0.04 | 1 | 1012.3 |
| 20260502232456 | 43 | 5 | 0.9 | 3.5 | 0.02 | 0.04 | 0.04 | 1 | 1012.3 |
| 20260502232339 | 43 | 13 | 0.9 | 3.5 | 0.02 | 0.04 | 0.04 | 1 | 1012.2 |
| 20260502232301 | 43 | 5 | 0.9 | 3.5 | 0.02 | 0.04 | 0.04 | 1 | 1012.2 |
| 20260502232219 | 43 | 5 | 1.7 | 3.5 | 0.02 | 0.04 | 0.04 | 1 | 1012.3 |
| 20260502232031 | 43 | 5 | 0.9 | 3.5 | 0.02 | 0.04 | 0.04 | 1 | 1012.3 |
| 20260502231946 | 43 | 5 | 0.9 | 3.5 | 0.02 | 0.04 | 0.04 | 1 | 1012.3 |
| 20260502231816 | 43 | 5 | 0.9 | 3.5 | 0.02 | 0.04 | 0.04 | 1 | 1012.3 |
| 20260502231738 | 43 | 355 | 1.7 | 3.5 | 0.02 | 0.04 | 0.04 | 1 | 1012.3 |
| 20260502231540 | 43 | 336 | 0.0 | 2.6 | 0.02 | 0.04 | 0.04 | 1 | 1012.2 |
| 20260502231444 | 43 | 15 | 0.0 | 1.7 | 0.02 | 0.04 | 0.04 | 1 | 1012.2 |
| 20260502231326 | 43 | 15 | 0.0 | 1.7 | 0.02 | 0.04 | 0.04 | 1 | 1012.3 |
| 20260502231248 | 43 | 15 | 0.0 | 1.7 | 0.02 | 0.04 | 0.04 | 1 | 1012.3 |
| 20260502231126 | 44 | 15 | 0.0 | 1.7 | 0.02 | 0.04 | 0.04 | 1 | 1012.3 |
| 20260502231030 | 44 | 15 | 0.9 | 1.7 | 0.01 | 0.03 | 0.03 | 1 | 1012.3 |
| 20260502230930 | 44 | 15 | 0.9 | 1.7 | 0.01 | 0.03 | 0.03 | 1 | 1012.3 |
| 20260502230733 | 44 | 15 | 0.0 | 0.9 | 0.01 | 0.03 | 0.03 | 1 | 1012.3 |
| 20260502230633 | 44 | 15 | 0.0 | 0.0 | 0.01 | 0.03 | 0.03 | 1 | 1012.2 |
| 20260502230538 | 44 | 15 | 0.0 | 0.0 | 0.01 | 0.03 | 0.03 | 1 | 1012.2 |
| 20260502230439 | 44 | 15 | 0.0 | 0.0 | 0.01 | 0.03 | 0.03 | 1 | 1012.2 |
| 20260502230308 | 44 | 15 | 0.0 | 0.0 | 0.01 | 0.03 | 0.03 | 1 | 1012.2 |
| 20260502230222 | 44 | 15 | 0.0 | 0.0 | 0.01 | 0.03 | 0.03 | 1 | 1012.2 |
| 20260502230032 | 44 | 15 | 0.0 | 0.0 | 0.01 | 0.03 | 0.03 | 1 | 1012.1 |
| 20260502225955 | 44 | 15 | 0.0 | 0.0 | 0.01 | 0.03 | 0.03 | 1 | 1012.0 |
| 20260502225838 | 44 | 15 | 0.0 | 0.0 | 0.01 | 0.03 | 0.03 | 1 | 1012.1 |
| 20260502225801 | 44 | 15 | 0.0 | 0.0 | 0.01 | 0.03 | 0.03 | 1 | 1012.1 |
| 20260502225722 | 44 | 15 | 0.0 | 0.0 | 0.01 | 0.03 | 0.03 | 1 | 1012.1 |
| 20260502225526 | 44 | 15 | 0.0 | 0.0 | 0.01 | 0.03 | 0.03 | 1 | 1012.0 |
| 20260502225447 | 44 | 15 | 0.0 | 0.0 | 0.01 | 0.03 | 0.03 | 1 | 1012.0 |
| 20260502225351 | 44 | 15 | 0.0 | 0.0 | 0.01 | 0.03 | 0.03 | 1 | 1011.9 |
| 20260502225213 | 44 | 15 | 0.0 | 0.0 | 0.00 | 0.02 | 0.02 | 1 | 1011.9 |
| 20260502225115 | 44 | 15 | 0.0 | 0.0 | 0.00 | 0.02 | 0.02 | 1 | 1011.9 |
| 20260502225037 | 44 | 15 | 0.0 | 0.0 | 0.00 | 0.02 | 0.02 | 1 | 1011.9 |
| 20260502224912 | 44 | 15 | 0.0 | 0.0 | 0.00 | 0.02 | 0.02 | 1 | 1011.9 |
| 20260502224827 | 44 | 15 | 0.0 | 0.0 | 0.00 | 0.02 | 0.02 | 1 | 1011.8 |
| 20260502224656 | 44 | 15 | 0.0 | 0.0 | 0.00 | 0.02 | 0.02 | 1 | 1011.8 |
| 20260502224556 | 44 | 15 | 0.0 | 0.0 | 0.00 | 0.02 | 0.02 | 1 | 1011.8 |
| 20260502224437 | 44 | 15 | 0.0 | 0.0 | 0.00 | 0.02 | 0.02 | 1 | 1011.8 |
| 20260502224401 | 44 | 15 | 0.0 | 0.0 | 0.00 | 0.02 | 0.02 | 1 | 1011.8 |
| 20260502224323 | 44 | 15 | 0.0 | 0.0 | 0.00 | 0.02 | 0.02 | 1 | 1011.7 |
| 20260502224126 | 44 | 15 | 0.0 | 0.0 | 0.00 | 0.02 | 0.02 | 1 | 1011.8 |
| 20260502224028 | 44 | 15 | 0.0 | 0.9 | 0.00 | 0.02 | 0.02 | 1 | 1011.8 |
| 20260502223931 | 44 | 15 | 0.0 | 0.9 | 0.00 | 0.02 | 0.02 | 1 | 1011.8 |
| 20260502223848 | 44 | 15 | 0.0 | 0.9 | 0.00 | 0.02 | 0.02 | 1 | 1011.8 |
| 20260502223743 | 44 | 15 | 0.0 | 0.9 | 0.00 | 0.02 | 0.02 | 1 | 1011.8 |
| 20260502223625 | 44 | 15 | 0.0 | 0.9 | 0.00 | 0.02 | 0.02 | 1 | 1011.8 |
| 20260502223548 | 44 | 15 | 0.0 | 0.9 | 0.00 | 0.02 | 0.02 | 1 | 1011.8 |
| 20260502223419 | 44 | 15 | 0.0 | 0.9 | 0.00 | 0.02 | 0.02 | 1 | 1011.8 |
| 20260502223336 | 44 | 15 | 0.0 | 0.9 | 0.00 | 0.02 | 0.02 | 1 | 1011.8 |
| 20260502223204 | 44 | 15 | 0.0 | 0.9 | 0.00 | 0.02 | 0.02 | 1 | 1011.8 |
| 20260502223126 | 44 | 15 | 0.0 | 0.9 | 0.00 | 0.02 | 0.02 | 1 | 1011.8 |
| 20260502223009 | 44 | 15 | 0.0 | 0.9 | 0.00 | 0.02 | 0.02 | 1 | 1011.8 |
| 20260502222930 | 44 | 15 | 0.0 | 0.9 | 0.00 | 0.02 | 0.02 | 1 | 1011.8 |
| 20260502222737 | 44 | 15 | 0.0 | 0.9 | 0.00 | 0.02 | 0.02 | 1 | 1011.8 |
| 20260502222640 | 44 | 15 | 0.0 | 0.9 | 0.00 | 0.02 | 0.02 | 1 | 1011.8 |
| 20260502222524 | 44 | 15 | 0.0 | 2.6 | 0.00 | 0.02 | 0.02 | 1 | 1011.8 |
| 20260502222446 | 44 | 15 | 0.0 | 2.6 | 0.00 | 0.02 | 0.02 | 1 | 1011.8 |
| 20260502222340 | 44 | 15 | 0.0 | 2.6 | 0.00 | 0.02 | 0.02 | 1 | 1011.8 |
| 20260502222223 | 44 | 15 | 0.0 | 2.6 | 0.00 | 0.02 | 0.02 | 1 | 1011.7 |
| 20260502222145 | 44 | 15 | 0.0 | 2.6 | 0.00 | 0.02 | 0.02 | 1 | 1011.7 |
| 20260502222045 | 44 | 15 | 0.0 | 2.6 | 0.00 | 0.02 | 0.02 | 1 | 1011.7 |
| 20260502221945 | 44 | 15 | 0.0 | 2.6 | 0.00 | 0.02 | 0.02 | 1 | 1011.7 |
| 20260502221852 | 44 | 15 | 0.9 | 2.6 | 0.00 | 0.02 | 0.02 | 1 | 1011.7 |
| 20260502221721 | 44 | 15 | 0.9 | 2.6 | 0.00 | 0.02 | 0.02 | 1 | 1011.6 |
| 20260502221637 | 44 | 11 | 0.9 | 2.6 | 0.01 | 0.02 | 0.02 | 1 | 1011.6 |
| 20260502221507 | 44 | 11 | 0.9 | 2.6 | 0.01 | 0.02 | 0.02 | 1 | 1011.6 |
| 20260502221429 | 44 | 11 | 0.9 | 2.6 | 0.01 | 0.02 | 0.02 | 1 | 1011.6 |
| 20260502221231 | 44 | 11 | 1.7 | 2.6 | 0.01 | 0.02 | 0.02 | 1 | 1011.7 |
| 20260502221155 | 44 | 9 | 0.9 | 2.6 | 0.01 | 0.02 | 0.02 | 1 | 1011.7 |
| 20260502221040 | 44 | 355 | 0.9 | 2.6 | 0.01 | 0.02 | 0.02 | 1 | 1011.6 |
| 20260502221000 | 44 | 355 | 0.9 | 2.6 | 0.01 | 0.02 | 0.02 | 1 | 1011.5 |
| 20260502220841 | 44 | 355 | 0.9 | 2.6 | 0.01 | 0.02 | 0.02 | 1 | 1011.6 |
| 20260502220807 | 44 | 9 | 0.9 | 2.6 | 0.01 | 0.02 | 0.02 | 1 | 1011.6 |
| 20260502220729 | 44 | 9 | 0.9 | 2.6 | 0.01 | 0.02 | 0.02 | 1 | 1011.5 |
| 20260502220522 | 44 | 342 | 1.7 | 2.6 | 0.01 | 0.02 | 0.02 | 1 | 1011.4 |
| 20260502220447 | 44 | 341 | 1.7 | 2.6 | 0.01 | 0.02 | 0.02 | 1 | 1011.4 |
| 20260502220400 | 44 | 338 | 1.7 | 2.6 | 0.01 | 0.02 | 0.02 | 1 | 1011.4 |
| 20260502220321 | 44 | 348 | 1.7 | 2.6 | 0.01 | 0.02 | 0.02 | 1 | 1011.4 |
| 20260502220124 | 44 | 17 | 0.9 | 2.6 | 0.01 | 0.02 | 0.02 | 1 | 1011.4 |
| 20260502220027 | 44 | 17 | 0.9 | 3.5 | 0.01 | 0.02 | 0.02 | 1 | 1011.4 |
| 20260502215926 | 44 | 13 | 0.9 | 3.5 | 0.01 | 0.02 | 0.02 | 1 | 1011.4 |
| 20260502215850 | 44 | 360 | 0.9 | 3.5 | 0.01 | 0.02 | 0.02 | 1 | 1011.4 |
| 20260502215806 | 44 | 355 | 0.9 | 3.5 | 0.01 | 0.02 | 0.02 | 1 | 1011.4 |
| 20260502215615 | 44 | 24 | 1.7 | 3.5 | 0.01 | 0.02 | 0.02 | 1 | 1011.4 |
| 20260502215537 | 44 | 9 | 1.7 | 3.5 | 0.01 | 0.02 | 0.02 | 1 | 1011.4 |
| 20260502215329 | 44 | 23 | 2.6 | 3.5 | 0.01 | 0.02 | 0.02 | 1 | 1011.5 |
| 20260502215251 | 44 | 23 | 2.6 | 3.5 | 0.01 | 0.02 | 0.02 | 1 | 1011.5 |
| 20260502215134 | 44 | 355 | 1.7 | 2.6 | 0.01 | 0.02 | 0.02 | 1 | 1011.4 |
| 20260502215055 | 44 | 337 | 1.7 | 2.6 | 0.01 | 0.02 | 0.02 | 1 | 1011.4 |
| 20260502214940 | 44 | 337 | 1.7 | 2.6 | 0.01 | 0.02 | 0.02 | 1 | 1011.5 |
| 20260502214809 | 44 | 14 | 0.9 | 2.6 | 0.01 | 0.02 | 0.02 | 1 | 1011.5 |
| 20260502214735 | 44 | 17 | 0.9 | 2.6 | 0.01 | 0.02 | 0.02 | 1 | 1011.5 |
| 20260502214605 | 44 | 13 | 0.0 | 2.6 | 0.01 | 0.02 | 0.02 | 1 | 1011.6 |
| 20260502214519 | 44 | 11 | 0.0 | 2.6 | 0.01 | 0.02 | 0.02 | 1 | 1011.6 |
| 20260502214331 | 44 | 11 | 0.9 | 2.6 | 0.01 | 0.02 | 0.02 | 1 | 1011.6 |
| 20260502214246 | 44 | 5 | 0.9 | 2.6 | 0.01 | 0.02 | 0.02 | 1 | 1011.6 |
| 20260502214034 | 44 | 350 | 0.9 | 1.7 | 0.01 | 0.02 | 0.02 | 1 | 1011.6 |
| 20260502213950 | 44 | 350 | 0.9 | 1.7 | 0.01 | 0.02 | 0.02 | 1 | 1011.6 |
| 20260502213819 | 44 | 349 | 0.9 | 1.7 | 0.01 | 0.02 | 0.02 | 1 | 1011.6 |
| 20260502213741 | 44 | 349 | 0.9 | 1.7 | 0.01 | 0.02 | 0.02 | 1 | 1011.7 |
| 20260502213606 | 44 | 349 | 0.9 | 1.7 | 0.01 | 0.02 | 0.02 | 1 | 1011.6 |
| 20260502213537 | 44 | 349 | 0.9 | 3.5 | 0.01 | 0.02 | 0.02 | 1 | 1011.7 |
| 20260502213411 | 44 | 349 | 0.0 | 3.5 | 0.01 | 0.02 | 0.02 | 1 | 1011.7 |
| 20260502213306 | 44 | 349 | 0.0 | 5.2 | 0.01 | 0.02 | 0.02 | 1 | 1011.7 |
| 20260502213135 | 44 | 349 | 0.9 | 5.2 | 0.01 | 0.02 | 0.02 | 1 | 1011.7 |
| 20260502213035 | 44 | 349 | 0.9 | 5.2 | 0.01 | 0.02 | 0.02 | 1 | 1011.7 |
| 20260502212905 | 44 | 344 | 0.9 | 5.2 | 0.01 | 0.02 | 0.02 | 1 | 1011.7 |
| 20260502212820 | 44 | 342 | 1.7 | 5.2 | 0.01 | 0.02 | 0.02 | 1 | 1011.7 |
| 20260502212631 | 44 | 355 | 2.6 | 5.2 | 0.01 | 0.02 | 0.02 | 1 | 1011.8 |
| 20260502212528 | 44 | 334 | 3.5 | 5.2 | 0.01 | 0.02 | 0.02 | 1 | 1011.8 |
| 20260502212425 | 44 | 340 | 2.6 | 6.1 | 0.01 | 0.02 | 0.02 | 1 | 1011.8 |
| 20260502212345 | 44 | 355 | 1.7 | 6.1 | 0.01 | 0.02 | 0.02 | 1 | 1011.8 |
| 20260502212131 | 44 | 337 | 0.9 | 6.1 | 0.01 | 0.02 | 0.02 | 1 | 1011.7 |
| 20260502212034 | 44 | 360 | 1.7 | 6.1 | 0.01 | 0.02 | 0.02 | 1 | 1011.7 |
| 20260502211939 | 44 | 360 | 1.7 | 6.1 | 0.01 | 0.02 | 0.02 | 1 | 1011.7 |
| 20260502211900 | 44 | 346 | 2.6 | 6.1 | 0.01 | 0.02 | 0.02 | 1 | 1011.7 |
| 20260502211823 | 44 | 282 | 2.6 | 6.1 | 0.01 | 0.02 | 0.02 | 1 | 1011.8 |
| 20260502211706 | 44 | 286 | 1.7 | 7.8 | 0.01 | 0.02 | 0.02 | 1 | 1011.7 |
| 20260502211628 | 44 | 342 | 1.7 | 7.8 | 0.00 | 0.01 | 0.01 | 1 | 1011.7 |
| 20260502211432 | 45 | 294 | 1.7 | 11.3 | 0.00 | 0.01 | 0.01 | 1 | 1011.6 |
| 20260502211335 | 45 | 306 | 2.6 | 11.3 | 0.00 | 0.01 | 0.01 | 1 | 1011.6 |
| 20260502211223 | 45 | 318 | 2.6 | 11.3 | 0.00 | 0.01 | 0.01 | 1 | 1011.6 |
| 20260502211144 | 45 | 5 | 2.6 | 11.3 | 0.00 | 0.01 | 0.01 | 1 | 1011.6 |
| 20260502210929 | 45 | 312 | 3.5 | 11.3 | 0.00 | 0.01 | 0.01 | 1 | 1011.7 |
| 20260502210831 | 45 | 319 | 6.1 | 11.3 | 0.00 | 0.01 | 0.01 | 3 | 1011.6 |
| 20260502210734 | 45 | 246 | 5.2 | 11.3 | 0.00 | 0.01 | 0.01 | 5 | 1011.6 |
| 20260502210657 | 45 | 281 | 3.5 | 11.3 | 0.00 | 0.01 | 0.01 | 5 | 1011.6 |
| 20260502210618 | 45 | 338 | 1.7 | 8.7 | 0.00 | 0.01 | 0.01 | 9 | 1011.6 |
| 20260502210440 | 45 | 180 | 0.9 | 8.7 | 0.00 | 0.01 | 0.01 | 10 | 1011.6 |
| 20260502210404 | 45 | 209 | 1.7 | 8.7 | 0.00 | 0.01 | 0.01 | 12 | 1011.6 |
| 20260502210323 | 45 | 119 | 1.7 | 8.7 | 0.00 | 0.01 | 0.01 | 13 | 1011.6 |
| 20260502210152 | 45 | 268 | 1.7 | 7.8 | 0.00 | 0.01 | 0.01 | 15 | 1011.6 |
| 20260502210050 | 45 | 275 | 1.7 | 7.8 | 0.00 | 0.01 | 0.01 | 16 | 1011.6 |
| 20260502205929 | 45 | 293 | 1.7 | 7.8 | 0.00 | 0.01 | 0.01 | 16 | 1011.5 |
| 20260502205851 | 45 | 337 | 1.7 | 7.8 | 0.00 | 0.01 | 0.01 | 17 | 1011.5 |
| 20260502205728 | 46 | 300 | 1.7 | 8.7 | 0.00 | 0.01 | 0.01 | 19 | 1011.5 |
| 20260502205648 | 46 | 306 | 2.6 | 11.3 | 0.00 | 0.01 | 0.01 | 19 | 1011.5 |
| 20260502205528 | 46 | 306 | 4.3 | 11.3 | 0.00 | 0.01 | 0.01 | 21 | 1011.5 |
| 20260502205446 | 46 | 279 | 4.3 | 11.3 | 0.00 | 0.01 | 0.01 | 22 | 1011.4 |
| 20260502205347 | 46 | 312 | 4.3 | 11.3 | 0.00 | 0.01 | 0.01 | 23 | 1011.4 |
| 20260502205235 | 46 | 279 | 3.5 | 11.3 | 0.00 | 0.01 | 0.01 | 23 | 1011.5 |
| 20260502205157 | 46 | 277 | 3.5 | 11.3 | 0.00 | 0.01 | 0.01 | 25 | 1011.4 |
| 20260502205039 | 46 | 305 | 4.3 | 11.3 | 0.00 | 0.01 | 0.01 | 25 | 1011.4 |
| 20260502205000 | 46 | 298 | 5.2 | 11.3 | 0.00 | 0.01 | 0.01 | 26 | 1011.4 |
| 20260502204922 | 46 | 315 | 5.2 | 11.3 | 0.00 | 0.01 | 0.01 | 26 | 1011.5 |
| 20260502204726 | 46 | 194 | 4.3 | 10.4 | 0.00 | 0.01 | 0.01 | 26 | 1011.3 |
| 20260502204647 | 46 | 225 | 3.5 | 10.4 | 0.00 | 0.01 | 0.01 | 26 | 1011.3 |
| 20260502204530 | 46 | 11 | 3.5 | 10.4 | 0.00 | 0.01 | 0.01 | 27 | 1011.4 |
| 20260502204454 | 46 | 298 | 4.3 | 10.4 | 0.00 | 0.01 | 0.01 | 27 | 1011.4 |
| 20260502204325 | 46 | 299 | 4.3 | 10.4 | 0.00 | 0.01 | 0.01 | 27 | 1011.3 |
| 20260502204228 | 46 | 310 | 4.3 | 10.4 | 0.00 | 0.01 | 0.01 | 27 | 1011.3 |
| 20260502204150 | 46 | 322 | 5.2 | 10.4 | 0.00 | 0.01 | 0.01 | 26 | 1011.3 |
| 20260502204113 | 46 | 349 | 5.2 | 10.4 | 0.00 | 0.01 | 0.01 | 26 | 1011.2 |
| 20260502204015 | 46 | 294 | 6.1 | 10.4 | 0.00 | 0.01 | 0.01 | 26 | 1011.2 |
| 20260502203919 | 46 | 355 | 5.2 | 10.4 | 0.00 | 0.01 | 0.01 | 24 | 1011.2 |
| 20260502203842 | 46 | 341 | 3.5 | 10.4 | 0.00 | 0.01 | 0.01 | 24 | 1011.3 |
| 20260502203711 | 46 | 334 | 4.3 | 11.3 | 0.00 | 0.01 | 0.01 | 26 | 1011.2 |
| 20260502203624 | 46 | 303 | 6.1 | 11.3 | 0.00 | 0.01 | 0.01 | 25 | 1011.2 |
| 20260502203435 | 47 | 310 | 4.3 | 11.3 | 0.00 | 0.01 | 0.01 | 25 | 1011.2 |
| 20260502203351 | 47 | 11 | 3.5 | 11.3 | 0.00 | 0.01 | 0.01 | 24 | 1011.2 |
| 20260502203225 | 47 | 315 | 2.6 | 11.3 | 0.00 | 0.01 | 0.01 | 24 | 1011.2 |
| 20260502203126 | 47 | 315 | 3.5 | 11.3 | 0.00 | 0.01 | 0.01 | 25 | 1011.2 |
| 20260502202958 | 47 | 309 | 6.1 | 11.3 | 0.00 | 0.01 | 0.01 | 28 | 1011.1 |
| 20260502202830 | 47 | 306 | 5.2 | 8.7 | 0.00 | 0.01 | 0.01 | 28 | 1011.1 |
| 20260502202754 | 47 | 346 | 4.3 | 12.2 | 0.00 | 0.01 | 0.01 | 27 | 1011.1 |
| 20260502202656 | 47 | 319 | 4.3 | 12.2 | 0.00 | 0.01 | 0.01 | 28 | 1011.1 |
| 20260502202538 | 47 | 360 | 4.3 | 12.2 | 0.00 | 0.01 | 0.01 | 30 | 1011.1 |
| 20260502202421 | 47 | 346 | 5.2 | 12.2 | 0.00 | 0.01 | 0.01 | 30 | 1011.1 |
| 20260502202345 | 47 | 336 | 5.2 | 12.2 | 0.00 | 0.01 | 0.01 | 33 | 1011.1 |
| 20260502202243 | 48 | 297 | 4.3 | 12.2 | 0.00 | 0.01 | 0.01 | 34 | 1011.1 |
| 20260502202128 | 48 | 347 | 6.1 | 12.2 | 0.00 | 0.01 | 0.01 | 34 | 1011.1 |
| 20260502202029 | 48 | 299 | 7.0 | 12.2 | 0.00 | 0.01 | 0.01 | 35 | 1011.0 |
| 20260502201946 | 48 | 323 | 6.1 | 12.2 | 0.00 | 0.01 | 0.01 | 36 | 1011.0 |
| 20260502201908 | 48 | 293 | 5.2 | 9.6 | 0.00 | 0.01 | 0.01 | 36 | 1011.0 |
| 20260502201828 | 48 | 323 | 4.3 | 7.8 | 0.00 | 0.01 | 0.01 | 36 | 1011.0 |
| 20260502201632 | 48 | 340 | 3.5 | 5.2 | 0.00 | 0.01 | 0.01 | 31 | 1011.0 |
| 20260502201554 | 48 | 317 | 2.6 | 5.2 | 0.00 | 0.01 | 0.01 | 31 | 1011.0 |
| 20260502201458 | 48 | 346 | 2.6 | 7.0 | 0.00 | 0.01 | 0.01 | 33 | 1011.0 |
| 20260502201420 | 48 | 338 | 2.6 | 7.0 | 0.00 | 0.01 | 0.01 | 34 | 1010.9 |
| 20260502201226 | 47 | 355 | 1.7 | 7.0 | 0.00 | 0.01 | 0.01 | 33 | 1010.9 |
| 20260502201148 | 47 | 355 | 1.7 | 7.0 | 0.00 | 0.01 | 0.01 | 32 | 1010.9 |
| 20260502201018 | 47 | 325 | 1.7 | 7.0 | 0.00 | 0.01 | 0.01 | 33 | 1010.9 |
| 20260502200940 | 47 | 342 | 1.7 | 7.0 | 0.00 | 0.01 | 0.01 | 34 | 1010.9 |
| 20260502200741 | 47 | 19 | 3.5 | 7.0 | 0.00 | 0.01 | 0.01 | 35 | 1011.0 |
| 20260502200644 | 47 | 355 | 3.5 | 7.0 | 0.00 | 0.01 | 0.01 | 34 | 1011.0 |
| 20260502200526 | 47 | 338 | 2.6 | 7.0 | 0.00 | 0.01 | 0.01 | 34 | 1011.0 |
| 20260502200448 | 47 | 350 | 2.6 | 7.0 | 0.00 | 0.01 | 0.01 | 36 | 1011.0 |
| 20260502200327 | 47 | 309 | 3.5 | 7.0 | 0.00 | 0.01 | 0.01 | 35 | 1010.9 |
| 20260502200230 | 47 | 298 | 3.5 | 7.0 | 0.00 | 0.01 | 0.01 | 35 | 1010.9 |
| 20260502200152 | 47 | 323 | 4.3 | 7.0 | 0.00 | 0.01 | 0.01 | 34 | 1010.9 |
| 20260502195934 | 47 | 338 | 2.6 | 5.2 | 0.00 | 0.01 | 0.01 | 33 | 1011.0 |
| 20260502195837 | 47 | 342 | 2.6 | 5.2 | 0.00 | 0.01 | 0.01 | 35 | 1010.9 |
| 20260502195741 | 47 | 323 | 3.5 | 7.0 | 0.00 | 0.01 | 0.01 | 35 | 1010.9 |
| 20260502195702 | 47 | 309 | 3.5 | 7.0 | 0.00 | 0.01 | 0.01 | 35 | 1010.9 |
| 20260502195533 | 47 | 332 | 1.7 | 7.8 | 0.00 | 0.01 | 0.01 | 34 | 1011.0 |
| 20260502195427 | 47 | 298 | 2.6 | 7.8 | 0.00 | 0.01 | 0.01 | 35 | 1011.0 |
| 20260502195236 | 47 | 308 | 3.5 | 7.8 | 0.00 | 0.01 | 0.01 | 34 | 1011.0 |
| 20260502195136 | 47 | 330 | 3.5 | 7.8 | 0.00 | 0.01 | 0.01 | 34 | 1011.0 |
| 20260502195002 | 47 | 321 | 5.2 | 7.8 | 0.00 | 0.01 | 0.01 | 34 | 1011.0 |
| 20260502194924 | 47 | 326 | 5.2 | 7.8 | 0.00 | 0.01 | 0.01 | 34 | 1011.0 |
| 20260502194753 | 47 | 333 | 5.2 | 9.6 | 0.00 | 0.01 | 0.01 | 34 | 1010.9 |
| 20260502194654 | 47 | 329 | 4.3 | 9.6 | 0.00 | 0.01 | 0.01 | 34 | 1010.9 |
| 20260502194557 | 48 | 24 | 4.3 | 9.6 | 0.00 | 0.01 | 0.01 | 33 | 1011.0 |
| 20260502194519 | 48 | 338 | 4.3 | 9.6 | 0.00 | 0.01 | 0.01 | 33 | 1011.0 |
| 20260502194323 | 48 | 340 | 2.6 | 10.4 | 0.00 | 0.01 | 0.01 | 32 | 1010.9 |
| 20260502194225 | 48 | 332 | 3.5 | 10.4 | 0.00 | 0.01 | 0.01 | 33 | 1010.9 |
| 20260502194129 | 48 | 5 | 5.2 | 10.4 | 0.00 | 0.01 | 0.01 | 33 | 1010.9 |
| 20260502194051 | 48 | 316 | 5.2 | 10.4 | 0.00 | 0.01 | 0.01 | 34 | 1010.9 |
| 20260502194012 | 48 | 321 | 5.2 | 10.4 | 0.00 | 0.01 | 0.01 | 31 | 1010.9 |
| 20260502193922 | 48 | 351 | 5.2 | 10.4 | 0.00 | 0.01 | 0.01 | 33 | 1011.0 |
| 20260502193823 | 48 | 322 | 5.2 | 10.4 | 0.00 | 0.01 | 0.01 | 34 | 1010.9 |
| 20260502193628 | 48 | 11 | 7.8 | 10.4 | 0.00 | 0.01 | 0.01 | 36 | 1010.9 |
| 20260502193530 | 48 | 360 | 7.8 | 10.4 | 0.00 | 0.01 | 0.01 | 34 | 1010.9 |
| 20260502193434 | 48 | 343 | 7.0 | 10.4 | 0.00 | 0.01 | 0.01 | 31 | 1011.0 |
| 20260502193357 | 48 | 349 | 5.2 | 10.4 | 0.00 | 0.01 | 0.01 | 31 | 1011.0 |
| 20260502193318 | 48 | 339 | 4.3 | 10.4 | 0.00 | 0.01 | 0.01 | 33 | 1010.9 |
| 20260502193221 | 48 | 13 | 4.3 | 10.4 | 0.00 | 0.01 | 0.01 | 33 | 1010.9 |
| 20260502193142 | 48 | 360 | 5.2 | 10.4 | 0.00 | 0.01 | 0.01 | 35 | 1011.0 |
| 20260502193012 | 49 | 24 | 7.0 | 12.2 | 0.00 | 0.01 | 0.01 | 35 | 1011.0 |
| 20260502192936 | 49 | 351 | 7.0 | 12.2 | 0.00 | 0.01 | 0.01 | 35 | 1011.0 |
| 20260502192742 | 49 | 35 | 5.2 | 12.2 | 0.00 | 0.01 | 0.01 | 37 | 1010.9 |
| 20260502192704 | 49 | 324 | 5.2 | 12.2 | 0.00 | 0.01 | 0.01 | 37 | 1010.9 |
| 20260502192609 | 49 | 340 | 7.0 | 12.2 | 0.00 | 0.01 | 0.01 | 35 | 1010.9 |
| 20260502192510 | 49 | 342 | 7.0 | 12.2 | 0.00 | 0.01 | 0.01 | 35 | 1011.0 |
| 20260502192320 | 49 | 339 | 7.8 | 12.2 | 0.00 | 0.01 | 0.01 | 37 | 1011.0 |
| 20260502192235 | 49 | 349 | 7.0 | 12.2 | 0.00 | 0.01 | 0.01 | 36 | 1011.0 |
| 20260502192105 | 49 | 347 | 4.3 | 13.0 | 0.00 | 0.01 | 0.01 | 34 | 1011.0 |
| 20260502192027 | 49 | 360 | 3.5 | 13.0 | 0.00 | 0.01 | 0.01 | 36 | 1010.9 |
| 20260502191832 | 49 | 252 | 5.2 | 13.0 | 0.00 | 0.01 | 0.01 | 35 | 1010.9 |
| 20260502191733 | 49 | 293 | 5.2 | 13.0 | 0.00 | 0.01 | 0.01 | 33 | 1011.0 |
| 20260502191643 | 49 | 317 | 5.2 | 13.0 | 0.00 | 0.01 | 0.01 | 32 | 1011.0 |
| 20260502191604 | 49 | 329 | 5.2 | 13.0 | 0.00 | 0.01 | 0.01 | 34 | 1011.0 |
| 20260502191434 | 49 | 321 | 8.7 | 13.0 | 0.00 | 0.01 | 0.01 | 35 | 1011.0 |
| 20260502191327 | 49 | 331 | 8.7 | 13.0 | 0.00 | 0.01 | 0.01 | 35 | 1011.0 |
| 20260502191158 | 50 | 321 | 7.8 | 12.2 | 0.00 | 0.01 | 0.01 | 36 | 1010.9 |
| 20260502191058 | 50 | 288 | 8.7 | 12.2 | 0.00 | 0.01 | 0.01 | 35 | 1010.9 |
| 20260502190941 | 50 | 335 | 7.8 | 12.2 | 0.00 | 0.01 | 0.01 | 35 | 1010.9 |
| 20260502190905 | 50 | 331 | 6.1 | 11.3 | 0.00 | 0.01 | 0.01 | 35 | 1010.9 |
| 20260502190728 | 50 | 309 | 3.5 | 11.3 | 0.00 | 0.01 | 0.01 | 34 | 1011.0 |
| 20260502190649 | 50 | 296 | 4.3 | 9.6 | 0.00 | 0.01 | 0.01 | 35 | 1011.0 |
| 20260502190553 | 50 | 360 | 5.2 | 9.6 | 0.00 | 0.01 | 0.01 | 36 | 1011.0 |
| 20260502190502 | 50 | 312 | 4.3 | 9.6 | 0.00 | 0.01 | 0.01 | 36 | 1011.0 |
| 20260502190402 | 50 | 326 | 2.6 | 9.6 | 0.00 | 0.01 | 0.01 | 36 | 1011.0 |
| 20260502190212 | 50 | 257 | 3.5 | 11.3 | 0.00 | 0.01 | 0.01 | 39 | 1011.0 |
| 20260502190107 | 50 | 305 | 4.3 | 11.3 | 0.00 | 0.01 | 0.01 | 39 | 1011.0 |
| 20260502185916 | 50 | 285 | 5.2 | 11.3 | 0.00 | 0.01 | 0.01 | 41 | 1011.0 |
| 20260502185818 | 50 | 311 | 6.1 | 11.3 | 0.00 | 0.01 | 0.01 | 42 | 1010.9 |
| 20260502185721 | 50 | 360 | 7.0 | 11.3 | 0.00 | 0.01 | 0.01 | 45 | 1010.9 |
| 20260502185621 | 50 | 321 | 6.1 | 11.3 | 0.00 | 0.01 | 0.01 | 45 | 1011.0 |
| 20260502185432 | 51 | 188 | 4.3 | 7.8 | 0.00 | 0.01 | 0.01 | 46 | 1011.0 |
| 20260502185327 | 51 | 267 | 2.6 | 7.8 | 0.00 | 0.01 | 0.01 | 46 | 1010.9 |
| 20260502185215 | 51 | 271 | 3.5 | 7.0 | 0.00 | 0.01 | 0.01 | 46 | 1010.9 |
| 20260502185146 | 51 | 338 | 4.3 | 7.0 | 0.00 | 0.01 | 0.01 | 46 | 1010.9 |
| 20260502185018 | 51 | 281 | 5.2 | 7.0 | 0.00 | 0.01 | 0.01 | 46 | 1010.9 |
| 20260502184935 | 51 | 278 | 5.2 | 7.0 | 0.00 | 0.01 | 0.01 | 46 | 1010.9 |
| 20260502184725 | 51 | 293 | 3.5 | 7.8 | 0.00 | 0.01 | 0.01 | 45 | 1010.9 |
| 20260502184640 | 51 | 242 | 3.5 | 7.8 | 0.00 | 0.01 | 0.01 | 47 | 1010.9 |
| 20260502184543 | 51 | 336 | 4.3 | 8.7 | 0.00 | 0.01 | 0.01 | 48 | 1010.9 |
| 20260502184436 | 51 | 217 | 3.5 | 8.7 | 0.00 | 0.01 | 0.01 | 48 | 1010.8 |
| 20260502184400 | 51 | 296 | 2.6 | 8.7 | 0.00 | 0.01 | 0.01 | 48 | 1010.8 |
| 20260502184248 | 51 | 317 | 4.3 | 8.7 | 0.00 | 0.01 | 0.01 | 48 | 1010.8 |
| 20260502184149 | 51 | 337 | 5.2 | 8.7 | 0.00 | 0.01 | 0.01 | 48 | 1010.8 |
| 20260502184021 | 51 | 316 | 5.2 | 8.7 | 0.00 | 0.01 | 0.01 | 48 | 1010.9 |
| 20260502183935 | 51 | 327 | 3.5 | 8.7 | 0.00 | 0.01 | 0.01 | 47 | 1010.9 |
| 20260502183754 | 51 | 306 | 4.3 | 8.7 | 0.00 | 0.01 | 0.01 | 47 | 1010.8 |
| 20260502183657 | 51 | 290 | 3.5 | 8.7 | 0.00 | 0.01 | 0.01 | 46 | 1010.8 |
| 20260502183611 | 51 | 206 | 1.7 | 6.1 | 0.00 | 0.01 | 0.01 | 47 | 1010.9 |
| 20260502183420 | 51 | 226 | 4.3 | 6.1 | 0.00 | 0.01 | 0.01 | 47 | 1010.8 |
| 20260502183331 | 51 | 196 | 4.3 | 6.1 | 0.00 | 0.01 | 0.01 | 47 | 1010.9 |
| 20260502183134 | 51 | 261 | 3.5 | 7.0 | 0.00 | 0.01 | 0.01 | 45 | 1010.9 |
| 20260502183057 | 51 | 194 | 2.6 | 6.1 | 0.00 | 0.01 | 0.01 | 43 | 1010.9 |
| 20260502182925 | 51 | 304 | 2.6 | 4.3 | 0.00 | 0.01 | 0.01 | 44 | 1010.8 |
| 20260502182744 | 51 | 194 | 1.7 | 4.3 | 0.00 | 0.01 | 0.01 | 45 | 1010.8 |
| 20260502182628 | 51 | 115 | 1.7 | 4.3 | 0.00 | 0.01 | 0.01 | 44 | 1010.8 |
| 20260502182549 | 51 | 254 | 1.7 | 7.0 | 0.00 | 0.01 | 0.01 | 45 | 1010.8 |
| 20260502182332 | 50 | 257 | 1.7 | 7.0 | 0.00 | 0.01 | 0.01 | 43 | 1010.8 |
| 20260502182234 | 50 | 217 | 1.7 | 7.0 | 0.00 | 0.01 | 0.01 | 46 | 1010.8 |
| 20260502182137 | 50 | 209 | 2.6 | 7.0 | 0.00 | 0.01 | 0.01 | 46 | 1010.8 |
| 20260502182105 | 50 | 213 | 2.6 | 7.0 | 0.00 | 0.01 | 0.01 | 46 | 1010.8 |
| 20260502182026 | 50 | 202 | 3.5 | 7.0 | 0.00 | 0.01 | 0.01 | 46 | 1010.7 |
| 20260502181830 | 50 | 215 | 2.6 | 7.0 | 0.00 | 0.01 | 0.01 | 46 | 1010.8 |
| 20260502181754 | 50 | 275 | 2.6 | 7.0 | 0.00 | 0.01 | 0.01 | 46 | 1010.8 |
| 20260502181659 | 50 | 310 | 3.5 | 7.8 | 0.00 | 0.01 | 0.01 | 46 | 1010.7 |
| 20260502181619 | 50 | 301 | 3.5 | 7.8 | 0.00 | 0.01 | 0.01 | 46 | 1010.7 |
| 20260502181450 | 50 | 315 | 4.3 | 7.8 | 0.00 | 0.01 | 0.01 | 45 | 1010.7 |
| 20260502181345 | 50 | 292 | 3.5 | 7.8 | 0.00 | 0.01 | 0.01 | 46 | 1010.7 |
| 20260502181215 | 51 | 323 | 3.5 | 7.8 | 0.00 | 0.01 | 0.01 | 45 | 1010.7 |
| 20260502181137 | 51 | 283 | 3.5 | 7.8 | 0.00 | 0.01 | 0.01 | 46 | 1010.7 |
| 20260502180924 | 51 | 355 | 5.2 | 7.8 | 0.00 | 0.01 | 0.01 | 46 | 1010.7 |
| 20260502180848 | 51 | 338 | 4.3 | 7.8 | 0.00 | 0.01 | 0.01 | 44 | 1010.7 |
| 20260502180803 | 51 | 12 | 2.6 | 7.0 | 0.00 | 0.01 | 0.01 | 41 | 1010.8 |
| 20260502180702 | 51 | 333 | 2.6 | 7.0 | 0.00 | 0.01 | 0.01 | 42 | 1010.8 |
| 20260502180534 | 50 | 320 | 0.9 | 7.0 | 0.00 | 0.01 | 0.01 | 41 | 1010.8 |
| 20260502180428 | 50 | 340 | 0.9 | 7.0 | 0.00 | 0.01 | 0.01 | 45 | 1010.8 |
| 20260502180237 | 50 | 196 | 1.7 | 7.0 | 0.00 | 0.01 | 0.01 | 46 | 1010.8 |
| 20260502180151 | 50 | 219 | 2.6 | 7.0 | 0.00 | 0.01 | 0.01 | 46 | 1010.9 |
| 20260502170424 | 48 | 360 | 2.6 | 7.0 | 0.00 | 0.01 | 0.01 | 31 | 1011.2 |
| 20260502170346 | 48 | 11 | 3.5 | 7.0 | 0.00 | 0.01 | 0.01 | 28 | 1011.2 |
| 20260502170307 | 48 | 355 | 4.3 | 7.0 | 0.00 | 0.01 | 0.01 | 29 | 1011.2 |
| 20260502170212 | 48 | 335 | 3.5 | 7.0 | 0.00 | 0.01 | 0.01 | 27 | 1011.1 |
| 20260502170134 | 48 | 323 | 3.5 | 7.0 | 0.00 | 0.01 | 0.01 | 27 | 1011.1 |
| 20260502164339 | 48 | 11 | 3.5 | 5.2 | 0.00 | 0.01 | 0.01 | 13 | 1011.4 |
| 20260502164130 | 48 | 37 | 0.9 | 5.2 | 0.00 | 0.01 | 0.01 | 6 | 1011.4 |
| 20260502164044 | 48 | 39 | 0.9 | 5.2 | 0.00 | 0.01 | 0.01 | 5 | 1011.4 |
| 20260502163915 | 47 | 328 | 1.7 | 7.8 | 0.00 | 0.01 | 0.01 | 11 | 1011.4 |
| 20260502163836 | 47 | 328 | 1.7 | 7.8 | 0.00 | 0.01 | 0.01 | 14 | 1011.4 |
| 20260502163708 | 47 | 262 | 3.5 | 7.8 | 0.00 | 0.01 | 0.01 | 14 | 1011.4 |
| 20260502163620 | 47 | 278 | 4.3 | 7.8 | 0.00 | 0.01 | 0.01 | 12 | 1011.4 |
| 20260502163451 | 47 | 331 | 2.6 | 7.8 | 0.00 | 0.01 | 0.01 | 6 | 1011.4 |
| 20260502163355 | 47 | 346 | 2.6 | 7.8 | 0.00 | 0.01 | 0.01 | 7 | 1011.4 |
| 20260502163238 | 47 | 310 | 4.3 | 7.8 | 0.00 | 0.01 | 0.01 | 1 | 1011.4 |
| 20260502163201 | 47 | 314 | 5.2 | 7.8 | 0.00 | 0.01 | 0.01 | 1 | 1011.4 |
| 20260502163122 | 47 | 308 | 4.3 | 7.8 | 0.00 | 0.01 | 0.01 | 6 | 1011.4 |
| 20260502162926 | 47 | 11 | 1.7 | 7.8 | 0.00 | 0.01 | 0.01 | 5 | 1011.5 |
| 20260502162850 | 47 | 36 | 1.7 | 7.8 | 0.00 | 0.01 | 0.01 | 6 | 1011.5 |
| 20260502162753 | 47 | 287 | 3.5 | 7.8 | 0.00 | 0.01 | 0.01 | 6 | 1011.5 |
| 20260502162631 | 47 | 311 | 3.5 | 7.8 | 0.00 | 0.01 | 0.01 | 5 | 1011.5 |
| 20260502162534 | 47 | 334 | 4.3 | 7.8 | 0.00 | 0.01 | 0.01 | 2 | 1011.5 |
| 20260502162456 | 47 | 306 | 5.2 | 7.8 | 0.00 | 0.01 | 0.01 | 1 | 1011.5 |
| 20260502162420 | 47 | 355 | 5.2 | 7.8 | 0.00 | 0.01 | 0.01 | 1 | 1011.5 |
| 20260502162227 | 47 | 344 | 3.5 | 7.8 | 0.00 | 0.01 | 0.01 | 1 | 1011.6 |
| 20260502162129 | 47 | 35 | 3.5 | 7.8 | 0.00 | 0.01 | 0.01 | 1 | 1011.6 |
| 20260502162034 | 47 | 43 | 3.5 | 7.8 | 0.00 | 0.01 | 0.01 | 1 | 1011.6 |
| 20260502162004 | 47 | 355 | 3.5 | 7.8 | 0.00 | 0.01 | 0.01 | 1 | 1011.6 |
| 20260502161927 | 47 | 355 | 3.5 | 7.8 | 0.00 | 0.01 | 0.01 | 1 | 1011.6 |
| 20260502161756 | 47 | 300 | 1.7 | 7.8 | 0.00 | 0.01 | 0.01 | 1 | 1011.6 |
| 20260502161658 | 47 | 360 | 1.7 | 7.8 | 0.00 | 0.01 | 0.01 | 1 | 1011.6 |
| 20260502161619 | 47 | 287 | 2.6 | 7.8 | 0.00 | 0.01 | 0.01 | 1 | 1011.6 |
| 20260502161443 | 47 | 316 | 2.6 | 7.8 | 0.00 | 0.01 | 0.01 | 1 | 1011.7 |
| 20260502161346 | 47 | 12 | 1.7 | 7.8 | 0.00 | 0.01 | 0.01 | 1 | 1011.7 |
| 20260502161303 | 47 | 42 | 2.6 | 8.7 | 0.00 | 0.01 | 0.01 | 1 | 1011.7 |
| 20260502161111 | 47 | 30 | 5.2 | 8.7 | 0.00 | 0.01 | 0.01 | 1 | 1011.7 |
| 20260502161033 | 47 | 347 | 6.1 | 8.7 | 0.00 | 0.01 | 0.01 | 1 | 1011.7 |
| 20260502160835 | 47 | 341 | 3.5 | 8.7 | 0.00 | 0.01 | 0.01 | 1 | 1011.7 |
| 20260502160757 | 47 | 30 | 2.6 | 8.7 | 0.00 | 0.01 | 0.01 | 1 | 1011.7 |
| 20260502160700 | 47 | 55 | 2.6 | 8.7 | 0.00 | 0.01 | 0.01 | 1 | 1011.7 |
| 20260502160543 | 46 | 24 | 3.5 | 8.7 | 0.00 | 0.01 | 0.01 | 1 | 1011.7 |
| 20260502160427 | 46 | 28 | 3.5 | 8.7 | 0.00 | 0.01 | 0.01 | 1 | 1011.8 |
| 20260502160348 | 47 | 51 | 2.6 | 5.2 | 0.00 | 0.01 | 0.01 | 1 | 1011.8 |
| 20260502160230 | 46 | 349 | 1.7 | 7.0 | 0.00 | 0.01 | 0.01 | 1 | 1011.8 |
| 20260502160135 | 46 | 355 | 1.7 | 8.7 | 0.00 | 0.01 | 0.01 | 1 | 1011.9 |
| 20260502152332 | 46 | 344 | 3.5 | 5.2 | 0.00 | 0.01 | 0.01 | 1 | 1012.2 |
| 20260502152253 | 45 | 341 | 3.5 | 5.2 | 0.00 | 0.01 | 0.01 | 1 | 1012.2 |
| 20260502152154 | 45 | 325 | 3.5 | 5.2 | 0.00 | 0.01 | 0.01 | 1 | 1012.2 |
| 20260502152037 | 45 | 336 | 2.6 | 4.3 | 0.00 | 0.01 | 0.01 | 1 | 1012.2 |
| 20260502152000 | 45 | 335 | 3.5 | 4.3 | 0.00 | 0.01 | 0.01 | 1 | 1012.2 |
| 20260502151916 | 45 | 338 | 3.5 | 4.3 | 0.00 | 0.01 | 0.01 | 1 | 1012.2 |
| 20260502151734 | 45 | 350 | 2.6 | 6.1 | 0.00 | 0.01 | 0.01 | 1 | 1012.2 |
| 20260502151651 | 45 | 350 | 2.6 | 6.1 | 0.00 | 0.01 | 0.01 | 1 | 1012.2 |
| 20260502151459 | 45 | 346 | 2.6 | 6.1 | 0.00 | 0.01 | 0.01 | 1 | 1012.2 |
| 20260502151420 | 45 | 341 | 2.6 | 6.1 | 0.00 | 0.01 | 0.01 | 1 | 1012.2 |
| 20260502151228 | 45 | 312 | 1.7 | 6.1 | 0.00 | 0.01 | 0.01 | 1 | 1012.3 |
| 20260502151131 | 45 | 344 | 0.9 | 6.1 | 0.00 | 0.01 | 0.01 | 1 | 1012.2 |
| 20260502151035 | 45 | 313 | 2.6 | 6.1 | 0.00 | 0.01 | 0.01 | 1 | 1012.3 |
| 20260502150944 | 45 | 310 | 2.6 | 6.1 | 0.00 | 0.01 | 0.01 | 1 | 1012.3 |
| 20260502130747 | 42 | 325 | 2.6 | 5.2 | 0.00 | 0.01 | 0.01 | 1 | 1012.3 |
| 20260502130708 | 42 | 338 | 2.6 | 5.2 | 0.00 | 0.01 | 0.01 | 1 | 1012.2 |
| 20260502130612 | 42 | 306 | 1.7 | 3.5 | 0.00 | 0.01 | 0.01 | 1 | 1012.2 |
| 20260502130533 | 42 | 289 | 2.6 | 3.5 | 0.00 | 0.01 | 0.01 | 1 | 1012.2 |
| 20260502130336 | 42 | 286 | 1.7 | 3.5 | 0.00 | 0.01 | 0.01 | 1 | 1012.2 |
| 20260502130237 | 42 | 335 | 1.7 | 3.5 | 0.00 | 0.01 | 0.01 | 1 | 1012.2 |
| 20260502130143 | 42 | 335 | 1.7 | 4.3 | 0.00 | 0.01 | 0.01 | 1 | 1012.2 |
| 20260502123757 | 42 | 315 | 3.5 | 5.2 | 0.00 | 0.01 | 0.01 | 1 | 1012.0 |
| 20260502123659 | 42 | 343 | 3.5 | 5.2 | 0.00 | 0.01 | 0.01 | 1 | 1012.0 |
| 20260502123527 | 42 | 339 | 3.5 | 5.2 | 0.00 | 0.01 | 0.01 | 1 | 1012.0 |
| 20260502123443 | 42 | 335 | 2.6 | 4.3 | 0.00 | 0.01 | 0.01 | 1 | 1012.0 |
| 20260502123344 | 42 | 309 | 2.6 | 4.3 | 0.00 | 0.01 | 0.01 | 1 | 1012.1 |
| 20260502123226 | 42 | 355 | 2.6 | 4.3 | 0.00 | 0.01 | 0.01 | 1 | 1012.0 |
| 20260502123126 | 42 | 317 | 2.6 | 4.3 | 0.00 | 0.01 | 0.01 | 1 | 1012.1 |
| 20260502122930 | 42 | 333 | 3.5 | 4.3 | 0.00 | 0.01 | 0.01 | 1 | 1012.1 |
| 20260502122833 | 42 | 322 | 2.6 | 5.2 | 0.00 | 0.01 | 0.01 | 1 | 1012.1 |
| 20260502122734 | 42 | 313 | 2.6 | 5.2 | 0.01 | 0.01 | 0.01 | 1 | 1012.1 |
| 20260502122658 | 42 | 312 | 2.6 | 5.2 | 0.01 | 0.01 | 0.01 | 1 | 1012.1 |
| 20260502122623 | 42 | 311 | 2.6 | 5.2 | 0.01 | 0.01 | 0.01 | 1 | 1012.1 |
| 20260502122426 | 42 | 310 | 1.7 | 5.2 | 0.01 | 0.01 | 0.01 | 1 | 1012.1 |
| 20260502122348 | 42 | 310 | 1.7 | 5.2 | 0.01 | 0.01 | 0.01 | 1 | 1012.1 |
| 20260502122230 | 42 | 323 | 2.6 | 5.2 | 0.01 | 0.01 | 0.01 | 1 | 1012.1 |
| 20260502122152 | 42 | 336 | 2.6 | 5.2 | 0.01 | 0.01 | 0.01 | 1 | 1012.1 |
| 20260502122057 | 42 | 309 | 2.6 | 5.2 | 0.01 | 0.01 | 0.01 | 1 | 1012.1 |
| 20260502121936 | 42 | 321 | 1.7 | 5.2 | 0.01 | 0.01 | 0.01 | 1 | 1012.1 |
| 20260502121841 | 42 | 288 | 2.6 | 5.2 | 0.01 | 0.01 | 0.01 | 1 | 1012.1 |
| 20260502121739 | 42 | 275 | 3.5 | 5.2 | 0.01 | 0.01 | 0.01 | 1 | 1012.1 |
| 20260502121607 | 42 | 323 | 2.6 | 4.3 | 0.01 | 0.01 | 0.01 | 1 | 1012.1 |
| 20260502121525 | 42 | 340 | 1.7 | 4.3 | 0.01 | 0.01 | 0.01 | 1 | 1012.1 |
| 20260502121355 | 42 | 313 | 1.7 | 4.3 | 0.01 | 0.01 | 0.01 | 1 | 1012.2 |
| 20260502121255 | 42 | 312 | 2.6 | 4.3 | 0.01 | 0.01 | 0.01 | 1 | 1012.2 |
| 20260502121125 | 42 | 350 | 1.7 | 4.3 | 0.01 | 0.01 | 0.01 | 1 | 1012.1 |
| 20260502121017 | 42 | 344 | 1.7 | 4.3 | 0.01 | 0.01 | 0.01 | 1 | 1012.1 |
| 20260502120838 | 42 | 338 | 2.6 | 4.3 | 0.01 | 0.01 | 0.01 | 1 | 1012.1 |
| 20260502120753 | 42 | 340 | 3.5 | 5.2 | 0.01 | 0.01 | 0.01 | 1 | 1012.1 |
| 20260502120541 | 42 | 339 | 0.9 | 5.2 | 0.01 | 0.01 | 0.01 | 1 | 1012.2 |
| 20260502120435 | 42 | 297 | 1.7 | 5.2 | 0.01 | 0.01 | 0.01 | 1 | 1012.2 |
| 20260502120325 | 42 | 297 | 2.6 | 5.2 | 0.01 | 0.01 | 0.01 | 1 | 1012.1 |
| 20260502120245 | 42 | 327 | 1.7 | 5.2 | 0.01 | 0.01 | 0.01 | 1 | 1012.1 |
| 20260502115932 | 42 | 263 | 3.5 | 5.2 | 0.01 | 0.01 | 0.01 | 1 | 1012.1 |
| 20260502115835 | 42 | 343 | 2.6 | 5.2 | 0.01 | 0.01 | 0.01 | 1 | 1012.1 |
| 20260502115757 | 42 | 342 | 2.6 | 5.2 | 0.01 | 0.01 | 0.01 | 1 | 1012.1 |
| 20260502115730 | 42 | 328 | 2.6 | 5.2 | 0.01 | 0.01 | 0.01 | 1 | 1012.1 |
| 20260502115533 | 42 | 348 | 0.9 | 4.3 | 0.01 | 0.01 | 0.01 | 1 | 1012.0 |
| 20260502115456 | 42 | 311 | 0.9 | 4.3 | 0.01 | 0.01 | 0.01 | 1 | 1012.0 |
| 20260502115344 | 42 | 311 | 1.7 | 4.3 | 0.01 | 0.01 | 0.01 | 1 | 1012.1 |
| 20260502115306 | 42 | 311 | 2.6 | 4.3 | 0.01 | 0.01 | 0.01 | 1 | 1012.1 |
| 20260502115134 | 42 | 331 | 1.7 | 4.3 | 0.01 | 0.01 | 0.01 | 1 | 1012.0 |
| 20260502115026 | 42 | 319 | 1.7 | 4.3 | 0.01 | 0.01 | 0.01 | 1 | 1012.0 |
| 20260502114836 | 42 | 227 | 2.6 | 5.2 | 0.01 | 0.01 | 0.01 | 1 | 1012.0 |
| 20260502114729 | 42 | 331 | 2.6 | 4.3 | 0.01 | 0.01 | 0.01 | 1 | 1012.0 |
| 20260502114651 | 42 | 315 | 1.7 | 3.5 | 0.01 | 0.01 | 0.01 | 1 | 1012.0 |
| 20260502114536 | 42 | 346 | 0.9 | 3.5 | 0.01 | 0.01 | 0.01 | 1 | 1012.0 |
| 20260502114456 | 42 | 286 | 0.9 | 3.5 | 0.01 | 0.01 | 0.01 | 1 | 1011.9 |
| 20260502114338 | 42 | 286 | 0.9 | 5.2 | 0.01 | 0.01 | 0.01 | 1 | 1011.9 |
| 20260502114305 | 42 | 283 | 0.9 | 5.2 | 0.01 | 0.01 | 0.01 | 1 | 1011.9 |
| 20260502114225 | 42 | 263 | 1.7 | 5.2 | 0.01 | 0.01 | 0.01 | 1 | 1011.9 |
| 20260502114029 | 42 | 267 | 0.9 | 5.2 | 0.01 | 0.01 | 0.01 | 1 | 1011.9 |
| 20260502113952 | 42 | 301 | 0.9 | 5.2 | 0.01 | 0.01 | 0.01 | 1 | 1011.9 |
| 20260502113835 | 42 | 300 | 0.9 | 5.2 | 0.01 | 0.01 | 0.01 | 1 | 1011.9 |
| 20260502113757 | 42 | 300 | 0.9 | 5.2 | 0.01 | 0.01 | 0.01 | 1 | 1011.9 |
| 20260502113618 | 42 | 300 | 1.7 | 5.2 | 0.01 | 0.01 | 0.01 | 1 | 1011.9 |
| 20260502113550 | 42 | 300 | 1.7 | 5.2 | 0.01 | 0.01 | 0.01 | 1 | 1011.9 |
| 20260502113427 | 42 | 293 | 0.0 | 1.7 | 0.01 | 0.01 | 0.01 | 1 | 1011.8 |
| 20260502113148 | 42 | 254 | 0.0 | 0.0 | 0.01 | 0.01 | 0.01 | 1 | 1011.8 |
| 20260502113109 | 42 | 254 | 0.0 | 0.0 | 0.01 | 0.01 | 0.01 | 1 | 1011.8 |
| 20260502113030 | 42 | 254 | 0.0 | 0.0 | 0.01 | 0.01 | 0.01 | 1 | 1011.8 |
| 20260502112912 | 42 | 254 | 0.0 | 0.0 | 0.01 | 0.01 | 0.01 | 1 | 1011.8 |
| 20260502112834 | 42 | 254 | 0.0 | 0.0 | 0.01 | 0.01 | 0.01 | 1 | 1011.8 |
| 20260502112704 | 42 | 254 | 0.0 | 0.0 | 0.00 | 0.00 | 0.00 | 1 | 1011.8 |
| 20260502112617 | 42 | 254 | 0.0 | 0.0 | 0.00 | 0.00 | 0.00 | 1 | 1011.8 |
| 20260502112426 | 42 | 254 | 0.0 | 0.0 | 0.00 | 0.00 | 0.00 | 1 | 1011.7 |
| 20260502112341 | 42 | 254 | 0.0 | 0.0 | 0.00 | 0.00 | 0.00 | 1 | 1011.7 |
| 20260502112215 | 42 | 254 | 0.0 | 0.0 | 0.00 | 0.00 | 0.00 | 1 | 1011.7 |
| 20260502112137 | 42 | 254 | 0.0 | 0.0 | 0.00 | 0.00 | 0.00 | 1 | 1011.7 |
| 20260502112006 | 42 | 254 | 0.0 | 0.0 | 0.00 | 0.00 | 0.00 | 1 | 1011.7 |
| 20260502111849 | 42 | 254 | 0.0 | 0.0 | 0.00 | 0.00 | 0.00 | 1 | 1011.7 |
| 20260502111810 | 42 | 254 | 0.0 | 0.0 | 0.00 | 0.00 | 0.00 | 1 | 1011.7 |
| 20260502111710 | 42 | 254 | 0.0 | 0.0 | 0.00 | 0.00 | 0.00 | 1 | 1011.6 |
| 20260502111614 | 42 | 254 | 0.0 | 0.0 | 0.00 | 0.00 | 0.00 | 1 | 1011.6 |
| 20260502111535 | 42 | 254 | 0.0 | 0.0 | 0.00 | 0.00 | 0.00 | 1 | 1011.6 |
| 20260502111406 | 42 | 254 | 0.0 | 0.0 | 0.00 | 0.00 | 0.00 | 1 | 1011.6 |
| 20260502111320 | 42 | 254 | 0.0 | 0.0 | 0.00 | 0.00 | 0.00 | 1 | 1011.6 |
| 20260502111131 | 42 | 254 | 0.0 | 0.0 | 0.00 | 0.00 | 0.00 | 1 | 1011.5 |
| 20260502111054 | 42 | 254 | 0.0 | 0.0 | 0.00 | 0.00 | 0.00 | 1 | 1011.5 |
| 20260502110939 | 42 | 254 | 0.0 | 0.0 | 0.00 | 0.00 | 0.00 | 1 | 1011.5 |
| 20260502110902 | 42 | 254 | 0.0 | 0.0 | 0.00 | 0.00 | 0.00 | 1 | 1011.5 |
| 20260502110823 | 42 | 254 | 0.0 | 0.0 | 0.00 | 0.00 | 0.00 | 1 | 1011.6 |
| 20260502110627 | 42 | 254 | 0.0 | 0.0 | 0.00 | 0.00 | 0.00 | 1 | 1011.6 |
| 20260502110550 | 42 | 254 | 0.0 | 0.0 | 0.00 | 0.00 | 0.00 | 1 | 1011.6 |
| 20260502110455 | 42 | 254 | 0.0 | 0.0 | 0.00 | 0.00 | 0.00 | 1 | 1011.6 |
| 20260502110416 | 42 | 254 | 0.0 | 0.0 | 0.00 | 0.00 | 0.00 | 1 | 1011.6 |
| 20260502110219 | 42 | 254 | 0.0 | 0.0 | 0.00 | 0.00 | 0.00 | 1 | 1011.6 |
| 20260502110131 | 42 | 254 | 0.0 | 0.0 | 0.00 | 0.00 | 0.00 | 1 | 1011.6 |
| 20260502110034 | 42 | 254 | 0.0 | 0.0 | 0.00 | 0.00 | 0.00 | 1 | 1011.6 |
| 20260502105959 | 42 | 254 | 0.0 | 0.0 | 0.00 | 0.00 | 0.00 | 1 | 1011.6 |
| 20260502105921 | 42 | 254 | 0.0 | 0.0 | 0.00 | 0.00 | 0.00 | 1 | 1011.6 |
| 20260502105723 | 42 | 254 | 0.0 | 0.0 | 0.00 | 0.00 | 0.00 | 1 | 1011.6 |
| 20260502105646 | 42 | 254 | 0.0 | 0.0 | 0.00 | 0.00 | 0.00 | 1 | 1011.6 |
| 20260502105530 | 42 | 254 | 0.0 | 0.0 | 0.00 | 0.00 | 0.00 | 1 | 1011.6 |
| 20260502105451 | 42 | 254 | 0.0 | 0.0 | 0.00 | 0.00 | 0.00 | 1 | 1011.6 |
| 20260502105352 | 42 | 254 | 0.0 | 0.0 | 0.00 | 0.00 | 0.00 | 1 | 1011.6 |
| 20260502105235 | 42 | 254 | 0.0 | 0.0 | 0.00 | 0.00 | 0.00 | 1 | 1011.6 |
| 20260502105158 | 42 | 254 | 0.0 | 0.0 | 0.00 | 0.00 | 0.00 | 1 | 1011.6 |
| 20260502105040 | 42 | 254 | 0.0 | 0.0 | 0.00 | 0.00 | 0.00 | 1 | 1011.6 |
| 20260502104944 | 42 | 254 | 0.0 | 0.0 | 0.00 | 0.00 | 0.00 | 1 | 1011.6 |
| 20260502104814 | 42 | 254 | 0.0 | 0.0 | 0.00 | 0.00 | 0.00 | 1 | 1011.5 |
| 20260502104730 | 42 | 254 | 0.0 | 0.0 | 0.00 | 0.00 | 0.00 | 1 | 1011.5 |
| 20260502104601 | 42 | 254 | 0.0 | 0.0 | 0.00 | 0.00 | 0.00 | 1 | 1011.6 |
| 20260502104501 | 42 | 254 | 0.0 | 0.0 | 0.00 | 0.00 | 0.00 | 1 | 1011.5 |
| 20260502104222 | 42 | 254 | 0.0 | 0.0 | 0.00 | 0.00 | 0.00 | 1 | 1011.5 |
| 20260502104145 | 42 | 254 | 0.0 | 0.0 | 0.00 | 0.00 | 0.00 | 1 | 1011.5 |
| 20260502104048 | 42 | 254 | 0.0 | 0.0 | 0.00 | 0.00 | 0.00 | 1 | 1011.5 |
| 20260502103949 | 42 | 277 | 0.0 | 0.0 | 0.00 | 0.00 | 0.00 | 1 | 1011.5 |
| 20260502103911 | 42 | 277 | 0.0 | 0.0 | 0.00 | 0.00 | 0.00 | 1 | 1011.5 |
| 20260502103816 | 42 | 277 | 0.0 | 0.0 | 0.00 | 0.00 | 0.00 | 1 | 1011.5 |
| 20260502103719 | 42 | 277 | 0.0 | 0.0 | 0.00 | 0.00 | 0.00 | 1 | 1011.5 |
| 20260502103523 | 42 | 277 | 0.0 | 0.0 | 0.00 | 0.00 | 0.00 | 1 | 1011.6 |
| 20260502103425 | 42 | 277 | 0.0 | 0.0 | 0.00 | 0.00 | 0.00 | 1 | 1011.5 |
| 20260502103329 | 42 | 277 | 0.0 | 0.0 | 0.00 | 0.00 | 0.00 | 1 | 1011.5 |
| 20260502103249 | 42 | 277 | 0.0 | 0.0 | 0.00 | 0.00 | 0.00 | 1 | 1011.5 |
| 20260502103119 | 42 | 277 | 0.0 | 0.0 | 0.00 | 0.00 | 0.00 | 1 | 1011.5 |
| 20260502103033 | 42 | 277 | 0.0 | 0.0 | 0.00 | 0.00 | 0.00 | 1 | 1011.5 |
| 20260502102904 | 42 | 277 | 0.0 | 0.0 | 0.00 | 0.00 | 0.00 | 1 | 1011.5 |
| 20260502102825 | 42 | 277 | 0.0 | 0.0 | 0.00 | 0.00 | 0.00 | 1 | 1011.6 |
| 20260502102626 | 42 | 277 | 0.0 | 0.0 | 0.00 | 0.00 | 0.00 | 1 | 1011.6 |
| 20260502102552 | 42 | 277 | 0.0 | 0.0 | 0.00 | 0.00 | 0.00 | 1 | 1011.6 |
| 20260502102433 | 42 | 277 | 0.0 | 0.0 | 0.00 | 0.00 | 0.00 | 1 | 1011.6 |
| 20260502102326 | 42 | 277 | 0.0 | 0.0 | 0.00 | 0.00 | 0.00 | 1 | 1011.5 |
| 20260502102136 | 42 | 277 | 0.0 | 0.0 | 0.00 | 0.00 | 0.00 | 1 | 1011.4 |
| 20260502102032 | 42 | 277 | 0.0 | 0.0 | 0.00 | 0.00 | 0.00 | 1 | 1011.4 |
| 20260502101915 | 42 | 277 | 0.0 | 0.0 | 0.00 | 0.00 | 0.00 | 1 | 1011.4 |
| 20260502101808 | 42 | 277 | 0.0 | 0.0 | 0.00 | 0.00 | 0.00 | 1 | 1011.3 |
| 20260502101712 | 42 | 277 | 0.0 | 0.0 | 0.00 | 0.00 | 0.00 | 1 | 1011.3 |
| 20260502101446 | 41 | 277 | 0.0 | 0.0 | 0.00 | 0.00 | 0.00 | 1 | 1011.2 |
| 20260502101229 | 41 | 277 | 0.0 | 0.0 | 0.00 | 0.00 | 0.00 | 1 | 1011.2 |
| 20260502101130 | 41 | 277 | 0.0 | 0.0 | 0.00 | 0.00 | 0.00 | 1 | 1011.1 |
| 20260502101032 | 41 | 277 | 0.0 | 0.0 | 0.00 | 0.00 | 0.00 | 1 | 1011.1 |
| 20260502100954 | 41 | 277 | 0.0 | 0.0 | 0.00 | 0.00 | 0.00 | 1 | 1011.1 |
| 20260502100856 | 41 | 277 | 0.0 | 0.0 | 0.00 | 0.00 | 0.00 | 1 | 1011.1 |
| 20260502100759 | 41 | 277 | 0.0 | 0.0 | 0.00 | 0.00 | 0.00 | 1 | 1011.2 |
| 20260502100639 | 41 | 277 | 0.0 | 0.0 | 0.00 | 0.00 | 0.00 | 1 | 1011.3 |
| 20260502100542 | 41 | 277 | 0.0 | 0.0 | 0.00 | 0.00 | 0.00 | 1 | 1011.3 |
| 20260502100442 | 41 | 277 | 0.0 | 0.0 | 0.00 | 0.00 | 0.00 | 1 | 1011.3 |
| 20260502100316 | 42 | 277 | 0.0 | 0.0 | 0.00 | 0.00 | 0.00 | 1 | 1011.2 |
| 20260502100230 | 41 | 277 | 0.0 | 0.0 | 0.00 | 0.00 | 0.00 | 1 | 1011.3 |
| 20260502091526 | 42 | 277 | 0.0 | 1.7 | 0.00 | 0.00 | 0.00 | 1 | 1011.2 |
| 20260502091335 | 42 | 277 | 0.0 | 1.7 | 0.00 | 0.00 | 0.00 | 1 | 1011.1 |
| 20260502091237 | 42 | 277 | 0.9 | 1.7 | 0.00 | 0.00 | 0.00 | 1 | 1011.1 |
| 20260502091143 | 42 | 277 | 0.9 | 1.7 | 0.00 | 0.00 | 0.00 | 1 | 1011.1 |
| 20260502091057 | 42 | 277 | 0.0 | 1.7 | 0.00 | 0.00 | 0.00 | 1 | 1011.1 |
| 20260502090927 | 42 | 277 | 0.0 | 0.0 | 0.00 | 0.00 | 0.00 | 1 | 1011.1 |
| 20260502090827 | 42 | 277 | 0.0 | 0.0 | 0.00 | 0.00 | 0.00 | 1 | 1011.1 |
| 20260502090630 | 42 | 277 | 0.0 | 0.0 | 0.00 | 0.00 | 0.00 | 1 | 1011.2 |
| 20260502090553 | 42 | 277 | 0.0 | 0.0 | 0.00 | 0.00 | 0.00 | 1 | 1011.2 |
| 20260502090436 | 42 | 277 | 0.0 | 0.0 | 0.00 | 0.00 | 0.00 | 1 | 1011.2 |
| 20260502090358 | 42 | 277 | 0.0 | 0.0 | 0.00 | 0.00 | 0.00 | 1 | 1011.2 |
| 20260502090241 | 42 | 277 | 0.0 | 0.0 | 0.00 | 0.00 | 0.00 | 1 | 1011.2 |
| 20260502090203 | 42 | 277 | 0.0 | 0.0 | 0.00 | 0.00 | 0.00 | 1 | 1011.2 |
| 20260502071409 | 42 | 313 | 0.0 | 2.6 | 0.00 | 0.00 | 0.00 | 1 | 1011.4 |
| 20260502071330 | 42 | 313 | 0.0 | 2.6 | 0.00 | 0.00 | 0.00 | 1 | 1011.5 |
| 20260502071134 | 42 | 313 | 0.9 | 2.6 | 0.00 | 0.00 | 0.00 | 1 | 1011.5 |
| 20260502071039 | 42 | 313 | 1.7 | 2.6 | 0.00 | 0.00 | 0.00 | 1 | 1011.5 |
| 20260502070943 | 42 | 313 | 1.7 | 2.6 | 0.00 | 0.00 | 0.00 | 1 | 1011.5 |
| 20260502070844 | 42 | 297 | 0.9 | 2.6 | 0.00 | 0.00 | 0.00 | 1 | 1011.5 |
| 20260502070746 | 42 | 248 | 0.0 | 0.0 | 0.00 | 0.00 | 0.00 | 1 | 1011.5 |
| 20260502070647 | 42 | 248 | 0.0 | 0.0 | 0.00 | 0.00 | 0.00 | 1 | 1011.5 |
| 20260502070608 | 42 | 248 | 0.0 | 0.0 | 0.00 | 0.00 | 0.00 | 1 | 1011.5 |
| 20260502070513 | 42 | 248 | 0.0 | 0.0 | 0.00 | 0.00 | 0.00 | 1 | 1011.5 |
| 20260502070434 | 42 | 248 | 0.0 | 0.0 | 0.00 | 0.00 | 0.00 | 1 | 1011.6 |
| 20260502070304 | 42 | 248 | 0.0 | 0.0 | 0.00 | 0.00 | 0.00 | 1 | 1011.5 |
| 20260502070216 | 42 | 248 | 0.0 | 0.0 | 0.00 | 0.00 | 0.00 | 1 | 1011.5 |
| 20260502070046 | 42 | 248 | 0.0 | 0.0 | 0.00 | 0.00 | 0.00 | 1 | 1011.5 |
| 20260502065931 | 42 | 248 | 0.0 | 0.0 | 0.00 | 0.00 | 0.00 | 1 | 1011.4 |
| 20260502065834 | 42 | 248 | 0.0 | 0.0 | 0.00 | 0.00 | 0.00 | 1 | 1011.5 |
| 20260502065757 | 42 | 248 | 0.0 | 0.0 | 0.00 | 0.00 | 0.00 | 1 | 1011.5 |
| 20260502065718 | 42 | 248 | 0.0 | 0.0 | 0.00 | 0.00 | 0.00 | 1 | 1011.4 |
| 20260502065602 | 42 | 248 | 0.0 | 0.0 | 0.00 | 0.00 | 0.00 | 1 | 1011.4 |
| 20260502065523 | 42 | 248 | 0.0 | 0.0 | 0.00 | 0.00 | 0.00 | 1 | 1011.4 |
| 20260502065327 | 42 | 248 | 0.0 | 0.0 | 0.00 | 0.00 | 0.00 | 1 | 1011.4 |
| 20260502065228 | 42 | 248 | 0.0 | 0.0 | 0.00 | 0.00 | 0.00 | 1 | 1011.4 |
| 20260502065121 | 42 | 248 | 0.0 | 0.0 | 0.00 | 0.00 | 0.00 | 1 | 1011.4 |
| 20260502065048 | 42 | 248 | 0.0 | 0.0 | 0.00 | 0.00 | 0.00 | 1 | 1011.4 |
| 20260502065002 | 42 | 248 | 0.0 | 0.0 | 0.00 | 0.00 | 0.00 | 1 | 1011.4 |
| 20260502064832 | 42 | 248 | 0.0 | 0.0 | 0.00 | 0.00 | 0.00 | 1 | 1011.4 |
| 20260502064731 | 42 | 248 | 0.0 | 0.0 | 0.00 | 0.00 | 0.00 | 1 | 1011.5 |
| 20260502064534 | 42 | 248 | 0.0 | 0.0 | 0.00 | 0.00 | 0.00 | 1 | 1011.4 |
| 20260502064456 | 42 | 248 | 0.0 | 0.0 | 0.00 | 0.00 | 0.00 | 1 | 1011.4 |
| 20260502064340 | 42 | 248 | 0.0 | 0.0 | 0.00 | 0.00 | 0.00 | 1 | 1011.4 |
| 20260502064301 | 42 | 248 | 0.0 | 0.0 | 0.00 | 0.00 | 0.00 | 1 | 1011.4 |
| 20260502064023 | 42 | 248 | 0.0 | 0.0 | 0.00 | 0.00 | 0.00 | 1 | 1011.5 |
| 20260502063950 | 42 | 248 | 0.0 | 0.0 | 0.00 | 0.00 | 0.00 | 1 | 1011.5 |
| 20260502063856 | 42 | 248 | 0.0 | 0.0 | 0.00 | 0.00 | 0.00 | 1 | 1011.4 |
| 20260502063756 | 42 | 248 | 0.0 | 0.0 | 0.00 | 0.00 | 0.00 | 1 | 1011.4 |
| 20260502063626 | 42 | 248 | 0.0 | 0.0 | 0.00 | 0.00 | 0.00 | 1 | 1011.4 |
| 20260502063520 | 42 | 248 | 0.0 | 0.0 | 0.00 | 0.00 | 0.00 | 1 | 1011.3 |
| 20260502063349 | 42 | 248 | 0.0 | 0.0 | 0.00 | 0.00 | 0.00 | 1 | 1011.4 |
| 20260502063250 | 42 | 248 | 0.0 | 0.0 | 0.00 | 0.00 | 0.00 | 1 | 1011.4 |
| 20260502063205 | 42 | 248 | 0.0 | 0.0 | 0.00 | 0.00 | 0.00 | 1 | 1011.4 |
| 20260502063035 | 42 | 248 | 0.0 | 0.0 | 0.00 | 0.00 | 0.00 | 1 | 1011.4 |
| 20260502062935 | 42 | 248 | 0.0 | 0.0 | 0.00 | 0.00 | 0.00 | 1 | 1011.4 |
| 20260502062738 | 42 | 248 | 0.0 | 0.0 | 0.00 | 0.00 | 0.00 | 1 | 1011.4 |
| 20260502062644 | 42 | 248 | 0.0 | 0.0 | 0.00 | 0.00 | 0.00 | 1 | 1011.4 |
| 20260502062549 | 42 | 248 | 0.0 | 0.0 | 0.00 | 0.00 | 0.00 | 1 | 1011.4 |
| 20260502062510 | 42 | 248 | 0.0 | 0.0 | 0.00 | 0.00 | 0.00 | 1 | 1011.4 |
| 20260502062319 | 42 | 248 | 0.0 | 0.0 | 0.00 | 0.00 | 0.00 | 1 | 1011.4 |
| 20260502062234 | 42 | 248 | 0.0 | 0.0 | 0.00 | 0.00 | 0.00 | 1 | 1011.4 |
| 20260502062103 | 42 | 248 | 0.0 | 0.0 | 0.00 | 0.00 | 0.00 | 1 | 1011.4 |
| 20260502062014 | 42 | 248 | 0.0 | 0.0 | 0.00 | 0.00 | 0.00 | 1 | 1011.4 |
| 20260502061838 | 42 | 248 | 0.0 | 0.0 | 0.00 | 0.00 | 0.00 | 1 | 1011.5 |
| 20260502061739 | 42 | 248 | 0.0 | 0.0 | 0.00 | 0.00 | 0.00 | 1 | 1011.4 |
| 20260502061623 | 42 | 248 | 0.0 | 0.0 | 0.00 | 0.00 | 0.00 | 1 | 1011.5 |
| 20260502061544 | 42 | 248 | 0.0 | 0.0 | 0.00 | 0.00 | 0.00 | 1 | 1011.5 |
| 20260502061419 | 42 | 248 | 0.0 | 0.0 | 0.00 | 0.00 | 0.00 | 1 | 1011.4 |
| 20260502061125 | 42 | 248 | 0.0 | 0.0 | 0.00 | 0.00 | 0.00 | 1 | 1011.4 |
| 20260502061041 | 42 | 248 | 0.0 | 0.0 | 0.00 | 0.00 | 0.00 | 1 | 1011.4 |
| 20260502060942 | 42 | 248 | 0.0 | 0.0 | 0.00 | 0.00 | 0.00 | 1 | 1011.4 |
| 20260502060828 | 42 | 248 | 0.0 | 0.0 | 0.00 | 0.00 | 0.00 | 1 | 1011.4 |
| 20260502060748 | 42 | 248 | 0.0 | 0.0 | 0.00 | 0.00 | 0.00 | 1 | 1011.4 |
| 20260502060632 | 42 | 248 | 0.0 | 0.0 | 0.00 | 0.00 | 0.00 | 1 | 1011.4 |
| 20260502060555 | 42 | 248 | 0.0 | 0.0 | 0.00 | 0.00 | 0.00 | 1 | 1011.4 |
| 20260502060517 | 42 | 248 | 0.0 | 0.0 | 0.00 | 0.00 | 0.00 | 1 | 1011.4 |
| 20260502060324 | 42 | 248 | 0.0 | 0.0 | 0.00 | 0.00 | 0.00 | 1 | 1011.4 |
| 20260502060246 | 42 | 248 | 0.0 | 0.0 | 0.00 | 0.00 | 0.00 | 1 | 1011.4 |
| 20260502060131 | 42 | 248 | 0.0 | 0.0 | 0.00 | 0.00 | 0.00 | 1 | 1011.5 |
| 20260502060053 | 42 | 248 | 0.0 | 0.0 | 0.00 | 0.00 | 0.00 | 1 | 1011.5 |
| 20260502060015 | 42 | 248 | 0.0 | 0.0 | 0.00 | 0.00 | 0.00 | 1 | 1011.4 |
| 20260502055837 | 42 | 248 | 0.0 | 0.0 | 0.00 | 0.00 | 0.00 | 1 | 1011.5 |
| 20260502055759 | 42 | 248 | 0.0 | 0.0 | 0.00 | 0.00 | 0.00 | 1 | 1011.5 |
| 20260502055714 | 42 | 248 | 0.0 | 0.0 | 0.00 | 0.00 | 0.00 | 1 | 1011.5 |
| 20260502055544 | 42 | 248 | 0.0 | 0.0 | 0.00 | 0.00 | 0.00 | 1 | 1011.4 |
| 20260502055444 | 42 | 248 | 0.0 | 0.0 | 0.00 | 0.00 | 0.00 | 1 | 1011.4 |
| 20260502055331 | 42 | 248 | 0.0 | 0.0 | 0.00 | 0.00 | 0.00 | 1 | 1011.5 |
| 20260502055253 | 42 | 248 | 0.0 | 0.0 | 0.00 | 0.00 | 0.00 | 1 | 1011.5 |
| 20260502055215 | 42 | 248 | 0.0 | 0.0 | 0.00 | 0.00 | 0.00 | 1 | 1011.5 |
| 20260502055039 | 42 | 248 | 0.0 | 0.0 | 0.00 | 0.00 | 0.00 | 1 | 1011.5 |
| 20260502054940 | 42 | 248 | 0.0 | 0.0 | 0.00 | 0.00 | 0.00 | 1 | 1011.4 |
| 20260502054824 | 42 | 248 | 0.0 | 0.0 | 0.00 | 0.00 | 0.00 | 1 | 1011.5 |
| 20260502054746 | 42 | 248 | 0.0 | 0.0 | 0.00 | 0.00 | 0.00 | 1 | 1011.5 |
| 20260502054642 | 42 | 248 | 0.0 | 0.0 | 0.00 | 0.00 | 0.00 | 1 | 1011.5 |
| 20260502054524 | 42 | 248 | 0.0 | 0.0 | 0.00 | 0.00 | 0.00 | 1 | 1011.4 |
| 20260502054451 | 42 | 248 | 0.0 | 0.0 | 0.00 | 0.00 | 0.00 | 1 | 1011.4 |
| 20260502054412 | 42 | 248 | 0.0 | 0.0 | 0.00 | 0.00 | 0.00 | 1 | 1011.5 |
| 20260502054220 | 42 | 248 | 0.0 | 0.0 | 0.00 | 0.00 | 0.00 | 1 | 1011.4 |
| 20260502054135 | 42 | 248 | 0.0 | 0.0 | 0.00 | 0.00 | 0.00 | 1 | 1011.4 |
| 20260502053924 | 42 | 248 | 0.0 | 0.0 | 0.00 | 0.00 | 0.00 | 1 | 1011.5 |
| 20260502053840 | 42 | 248 | 0.0 | 0.0 | 0.00 | 0.00 | 0.00 | 1 | 1011.5 |
| 20260502053709 | 42 | 248 | 0.0 | 0.0 | 0.00 | 0.00 | 0.00 | 1 | 1011.4 |
| 20260502053631 | 42 | 248 | 0.0 | 0.0 | 0.00 | 0.00 | 0.00 | 1 | 1011.4 |
| 20260502053433 | 42 | 248 | 0.0 | 0.0 | 0.00 | 0.00 | 0.00 | 1 | 1011.4 |
| 20260502053355 | 42 | 248 | 0.0 | 0.0 | 0.00 | 0.00 | 0.00 | 1 | 1011.4 |
| 20260502053223 | 42 | 248 | 0.0 | 0.0 | 0.00 | 0.00 | 0.00 | 1 | 1011.4 |
| 20260502053139 | 42 | 248 | 0.0 | 0.0 | 0.00 | 0.00 | 0.00 | 1 | 1011.4 |
| 20260502052928 | 42 | 248 | 0.0 | 0.0 | 0.00 | 0.00 | 0.00 | 1 | 1011.5 |
| 20260502052842 | 42 | 248 | 0.0 | 0.0 | 0.00 | 0.00 | 0.00 | 1 | 1011.5 |
| 20260502052743 | 42 | 248 | 0.0 | 0.0 | 0.00 | 0.00 | 0.00 | 1 | 1011.5 |
| 20260502052637 | 42 | 248 | 0.0 | 0.0 | 0.00 | 0.00 | 0.00 | 1 | 1011.5 |
| 20260502052558 | 42 | 248 | 0.0 | 0.0 | 0.00 | 0.00 | 0.00 | 1 | 1011.6 |
| 20260502052407 | 42 | 248 | 0.0 | 0.0 | 0.00 | 0.00 | 0.00 | 1 | 1011.6 |
| 20260502052223 | 42 | 248 | 0.0 | 0.9 | 0.00 | 0.00 | 0.00 | 1 | 1011.6 |
| 20260502052125 | 42 | 248 | 0.0 | 0.9 | 0.00 | 0.00 | 0.00 | 1 | 1011.6 |
| 20260502052048 | 42 | 248 | 0.0 | 0.9 | 0.00 | 0.00 | 0.00 | 1 | 1011.6 |
| 20260502052008 | 42 | 248 | 0.0 | 0.9 | 0.00 | 0.00 | 0.00 | 1 | 1011.6 |
| 20260502051912 | 42 | 248 | 0.0 | 0.9 | 0.00 | 0.00 | 0.00 | 1 | 1011.6 |
| 20260502051833 | 42 | 248 | 0.0 | 0.9 | 0.00 | 0.00 | 0.00 | 1 | 1011.6 |
| 20260502051637 | 42 | 248 | 0.0 | 1.7 | 0.00 | 0.00 | 0.00 | 1 | 1011.6 |
| 20260502051538 | 42 | 248 | 0.0 | 1.7 | 0.00 | 0.00 | 0.00 | 1 | 1011.6 |
| 20260502051424 | 42 | 248 | 0.0 | 1.7 | 0.00 | 0.00 | 0.00 | 1 | 1011.6 |
| 20260502051349 | 42 | 248 | 0.0 | 1.7 | 0.00 | 0.00 | 0.00 | 1 | 1011.6 |
| 20260502051212 | 42 | 248 | 0.0 | 1.7 | 0.00 | 0.00 | 0.00 | 1 | 1011.7 |
| 20260502051134 | 42 | 248 | 0.0 | 1.7 | 0.00 | 0.00 | 0.00 | 1 | 1011.7 |
| 20260502050944 | 42 | 248 | 0.9 | 1.7 | 0.00 | 0.00 | 0.00 | 1 | 1011.6 |
| 20260502050838 | 42 | 262 | 0.9 | 2.6 | 0.00 | 0.00 | 0.00 | 1 | 1011.7 |
| 20260502050723 | 42 | 305 | 0.9 | 2.6 | 0.00 | 0.00 | 0.00 | 1 | 1011.7 |
| 20260502050645 | 42 | 323 | 0.0 | 2.6 | 0.00 | 0.00 | 0.00 | 1 | 1011.6 |
| 20260502050402 | 42 | 323 | 0.0 | 2.6 | 0.00 | 0.00 | 0.00 | 1 | 1011.6 |
| 20260502050316 | 42 | 323 | 0.0 | 2.6 | 0.00 | 0.00 | 0.00 | 1 | 1011.6 |
| 20260502050129 | 42 | 323 | 1.7 | 2.6 | 0.00 | 0.00 | 0.00 | 1 | 1011.6 |
| 20260502050041 | 42 | 323 | 0.9 | 2.6 | 0.00 | 0.00 | 0.00 | 1 | 1011.6 |
| 20260502045906 | 42 | 325 | 0.0 | 1.7 | 0.00 | 0.00 | 0.00 | 1 | 1011.6 |
| 20260502045827 | 42 | 325 | 0.0 | 1.7 | 0.00 | 0.00 | 0.00 | 1 | 1011.5 |
| 20260502045629 | 42 | 325 | 0.9 | 1.7 | 0.00 | 0.00 | 0.00 | 1 | 1011.6 |
| 20260502045552 | 42 | 325 | 0.0 | 1.7 | 0.00 | 0.00 | 0.00 | 1 | 1011.6 |
| 20260502045457 | 42 | 328 | 0.9 | 1.7 | 0.00 | 0.00 | 0.00 | 1 | 1011.5 |
| 20260502045337 | 42 | 328 | 0.9 | 1.7 | 0.00 | 0.00 | 0.00 | 1 | 1011.5 |
| 20260502045240 | 42 | 328 | 0.9 | 1.7 | 0.00 | 0.00 | 0.00 | 1 | 1011.5 |
| 20260502045142 | 42 | 328 | 0.0 | 0.9 | 0.00 | 0.00 | 0.00 | 1 | 1011.5 |
| 20260502045107 | 43 | 328 | 0.0 | 0.0 | 0.00 | 0.00 | 0.00 | 1 | 1011.4 |
| 20260502044951 | 43 | 328 | 0.0 | 0.0 | 0.00 | 0.00 | 0.00 | 1 | 1011.4 |
| 20260502044912 | 43 | 328 | 0.0 | 0.0 | 0.00 | 0.00 | 0.00 | 1 | 1011.5 |
| 20260502044648 | 42 | 328 | 0.0 | 0.0 | 0.00 | 0.00 | 0.00 | 1 | 1011.5 |
| 20260502044523 | 42 | 328 | 0.0 | 0.0 | 0.00 | 0.00 | 0.00 | 1 | 1011.5 |
| 20260502044427 | 42 | 328 | 0.0 | 0.9 | 0.00 | 0.00 | 0.00 | 1 | 1011.5 |
| 20260502044348 | 42 | 328 | 0.0 | 1.7 | 0.00 | 0.00 | 0.00 | 1 | 1011.5 |
| 20260502044129 | 42 | 328 | 0.0 | 1.7 | 0.00 | 0.00 | 0.00 | 1 | 1011.5 |
| 20260502044030 | 42 | 328 | 0.0 | 1.7 | 0.00 | 0.00 | 0.00 | 1 | 1011.5 |
| 20260502043937 | 42 | 328 | 0.0 | 1.7 | 0.00 | 0.00 | 0.00 | 1 | 1011.5 |
| 20260502043821 | 42 | 328 | 0.0 | 1.7 | 0.00 | 0.00 | 0.00 | 1 | 1011.5 |
| 20260502043625 | 42 | 328 | 0.9 | 1.7 | 0.00 | 0.00 | 0.00 | 1 | 1011.5 |
| 20260502043548 | 42 | 328 | 0.0 | 1.7 | 0.00 | 0.00 | 0.00 | 1 | 1011.5 |
| 20260502043432 | 42 | 328 | 0.9 | 1.7 | 0.00 | 0.00 | 0.00 | 1 | 1011.4 |
| 20260502043354 | 42 | 328 | 0.9 | 1.7 | 0.00 | 0.00 | 0.00 | 1 | 1011.5 |
| 20260502043136 | 42 | 329 | 0.9 | 1.7 | 0.00 | 0.00 | 0.00 | 1 | 1011.5 |
| 20260502043058 | 42 | 331 | 0.9 | 1.7 | 0.00 | 0.00 | 0.00 | 1 | 1011.5 |
| 20260502042924 | 42 | 342 | 0.9 | 1.7 | 0.00 | 0.00 | 0.00 | 1 | 1011.4 |
| 20260502042847 | 42 | 342 | 0.9 | 1.7 | 0.00 | 0.00 | 0.00 | 1 | 1011.4 |
| 20260502042742 | 42 | 342 | 0.9 | 1.7 | 0.00 | 0.00 | 0.00 | 1 | 1011.4 |
| 20260502042636 | 42 | 342 | 0.9 | 1.7 | 0.00 | 0.00 | 0.00 | 1 | 1011.6 |
| 20260502042538 | 42 | 342 | 0.9 | 1.7 | 0.00 | 0.00 | 0.00 | 1 | 1011.6 |
| 20260502042422 | 42 | 342 | 0.0 | 0.9 | 0.00 | 0.00 | 0.00 | 1 | 1011.6 |
| 20260502042345 | 42 | 342 | 0.0 | 0.9 | 0.00 | 0.00 | 0.00 | 1 | 1011.6 |
| 20260502042300 | 42 | 342 | 0.0 | 0.9 | 0.00 | 0.00 | 0.00 | 1 | 1011.6 |
| 20260502042124 | 42 | 342 | 0.0 | 0.9 | 0.00 | 0.00 | 0.00 | 1 | 1011.4 |
| 20260502041928 | 42 | 342 | 0.0 | 0.9 | 0.00 | 0.00 | 0.00 | 1 | 1011.5 |
| 20260502041829 | 42 | 342 | 0.0 | 0.9 | 0.00 | 0.00 | 0.00 | 1 | 1011.4 |
| 20260502041733 | 42 | 342 | 0.9 | 0.9 | 0.00 | 0.00 | 0.00 | 1 | 1011.4 |
| 20260502041655 | 42 | 342 | 0.9 | 0.9 | 0.00 | 0.00 | 0.00 | 1 | 1011.4 |
| 20260502041616 | 42 | 342 | 0.9 | 0.9 | 0.00 | 0.00 | 0.00 | 1 | 1011.4 |
| 20260502041418 | 42 | 342 | 0.9 | 0.9 | 0.00 | 0.00 | 0.00 | 1 | 1011.4 |
| 20260502041352 | 42 | 342 | 0.0 | 0.9 | 0.00 | 0.00 | 0.00 | 1 | 1011.4 |
| 20260502041235 | 42 | 342 | 0.0 | 0.0 | 0.00 | 0.00 | 0.00 | 1 | 1011.6 |
| 20260502041200 | 42 | 342 | 0.0 | 0.0 | 0.00 | 0.00 | 0.00 | 1 | 1011.5 |
| 20260502041009 | 42 | 342 | 0.0 | 0.0 | 0.00 | 0.00 | 0.00 | 1 | 1011.5 |
| 20260502040923 | 42 | 342 | 0.0 | 0.0 | 0.00 | 0.00 | 0.00 | 1 | 1011.5 |
| 20260502040733 | 42 | 342 | 0.0 | 0.0 | 0.00 | 0.00 | 0.00 | 1 | 1011.4 |
| 20260502040627 | 42 | 342 | 0.0 | 0.9 | 0.00 | 0.00 | 0.00 | 1 | 1011.4 |
| 20260502040559 | 42 | 342 | 0.0 | 0.9 | 0.00 | 0.00 | 0.00 | 1 | 1011.4 |
| 20260502040504 | 42 | 342 | 0.0 | 1.7 | 0.00 | 0.00 | 0.00 | 1 | 1011.4 |
| 20260502040424 | 42 | 342 | 0.0 | 1.7 | 0.00 | 0.00 | 0.00 | 1 | 1011.4 |
| 20260502040135 | 42 | 342 | 0.0 | 1.7 | 0.00 | 0.00 | 0.00 | 1 | 1011.4 |
| 20260502040042 | 42 | 342 | 0.0 | 1.7 | 0.00 | 0.00 | 0.00 | 1 | 1011.4 |
| 20260502035924 | 42 | 342 | 0.0 | 1.7 | 0.00 | 0.00 | 0.00 | 1 | 1011.4 |
| 20260502035845 | 42 | 342 | 0.0 | 1.7 | 0.00 | 0.00 | 0.00 | 1 | 1011.4 |
| 20260502035627 | 42 | 342 | 0.9 | 2.6 | 0.00 | 0.00 | 0.00 | 1 | 1011.4 |
| 20260502035550 | 42 | 342 | 0.9 | 2.6 | 0.00 | 0.00 | 0.00 | 1 | 1011.4 |
| 20260502035433 | 42 | 342 | 0.0 | 2.6 | 0.00 | 0.00 | 0.00 | 1 | 1011.4 |
| 20260502035333 | 42 | 342 | 0.0 | 2.6 | 0.00 | 0.00 | 0.00 | 1 | 1011.4 |
| 20260502035258 | 42 | 342 | 0.0 | 3.5 | 0.00 | 0.00 | 0.00 | 1 | 1011.4 |
| 20260502035124 | 42 | 342 | 0.9 | 3.5 | 0.00 | 0.00 | 0.00 | 1 | 1011.4 |
| 20260502035038 | 42 | 342 | 0.9 | 3.5 | 0.00 | 0.00 | 0.00 | 1 | 1011.4 |
| 20260502034940 | 42 | 342 | 1.7 | 3.5 | 0.00 | 0.00 | 0.00 | 1 | 1011.4 |
| 20260502034823 | 42 | 338 | 2.6 | 3.5 | 0.00 | 0.00 | 0.00 | 1 | 1011.3 |
| 20260502034745 | 42 | 338 | 2.6 | 3.5 | 0.00 | 0.00 | 0.00 | 1 | 1011.3 |
| 20260502034639 | 42 | 338 | 2.6 | 3.5 | 0.00 | 0.00 | 0.00 | 1 | 1011.3 |
| 20260502034524 | 42 | 338 | 2.6 | 3.5 | 0.00 | 0.00 | 0.00 | 1 | 1011.3 |
| 20260502034448 | 42 | 340 | 1.7 | 3.5 | 0.00 | 0.00 | 0.00 | 1 | 1011.3 |
| 20260502034409 | 42 | 360 | 1.7 | 2.6 | 0.00 | 0.00 | 0.00 | 1 | 1011.3 |
| 20260502034235 | 42 | 360 | 1.7 | 2.6 | 0.00 | 0.00 | 0.00 | 1 | 1011.4 |
| 20260502034156 | 42 | 360 | 1.7 | 2.6 | 0.00 | 0.00 | 0.00 | 1 | 1011.3 |
| 20260502034038 | 42 | 360 | 0.9 | 2.6 | 0.00 | 0.00 | 0.00 | 1 | 1011.4 |
| 20260502033948 | 42 | 360 | 0.9 | 1.7 | 0.00 | 0.00 | 0.00 | 1 | 1011.4 |
| 20260502033910 | 42 | 360 | 0.9 | 1.7 | 0.00 | 0.00 | 0.00 | 1 | 1011.4 |
| 20260502033710 | 42 | 360 | 0.9 | 1.7 | 0.00 | 0.00 | 0.00 | 1 | 1011.3 |
| 20260502033542 | 42 | 360 | 0.9 | 1.7 | 0.00 | 0.00 | 0.00 | 1 | 1011.3 |
| 20260502033425 | 42 | 360 | 0.9 | 1.7 | 0.00 | 0.00 | 0.00 | 1 | 1011.3 |
| 20260502033348 | 42 | 360 | 0.9 | 1.7 | 0.00 | 0.00 | 0.00 | 1 | 1011.3 |
| 20260502033218 | 42 | 360 | 0.0 | 1.7 | 0.00 | 0.00 | 0.00 | 1 | 1011.3 |
| 20260502033137 | 42 | 360 | 0.9 | 1.7 | 0.00 | 0.00 | 0.00 | 1 | 1011.3 |
| 20260502032923 | 42 | 360 | 0.9 | 1.7 | 0.00 | 0.00 | 0.00 | 1 | 1011.4 |
| 20260502032845 | 42 | 360 | 0.0 | 0.9 | 0.00 | 0.00 | 0.00 | 1 | 1011.4 |
| 20260502032750 | 42 | 360 | 0.0 | 0.0 | 0.00 | 0.00 | 0.00 | 1 | 1011.3 |
| 20260502032650 | 42 | 360 | 0.0 | 0.0 | 0.00 | 0.00 | 0.00 | 1 | 1011.4 |
| 20260502032458 | 42 | 360 | 0.0 | 0.0 | 0.00 | 0.00 | 0.00 | 1 | 1011.4 |
| 20260502032353 | 42 | 360 | 0.0 | 0.0 | 0.00 | 0.00 | 0.00 | 1 | 1011.4 |
| 20260502032314 | 42 | 360 | 0.0 | 0.0 | 0.00 | 0.00 | 0.00 | 1 | 1011.4 |
| 20260502032126 | 42 | 360 | 0.0 | 0.0 | 0.00 | 0.00 | 0.00 | 1 | 1011.4 |
| 20260502032040 | 42 | 360 | 0.0 | 0.0 | 0.00 | 0.00 | 0.00 | 1 | 1011.4 |
| 20260502031940 | 42 | 360 | 0.0 | 0.0 | 0.00 | 0.00 | 0.00 | 1 | 1011.4 |
| 20260502031848 | 42 | 360 | 0.0 | 0.0 | 0.00 | 0.00 | 0.00 | 1 | 1011.4 |
| 20260502031809 | 42 | 360 | 0.0 | 0.0 | 0.00 | 0.00 | 0.00 | 1 | 1011.4 |
| 20260502031628 | 42 | 360 | 0.0 | 0.9 | 0.00 | 0.00 | 0.00 | 1 | 1011.4 |
| 20260502031521 | 42 | 360 | 0.0 | 0.9 | 0.00 | 0.00 | 0.00 | 1 | 1011.4 |
| 20260502031332 | 42 | 360 | 0.0 | 0.9 | 0.00 | 0.00 | 0.00 | 1 | 1011.4 |
| 20260502031245 | 42 | 360 | 0.0 | 0.9 | 0.00 | 0.00 | 0.00 | 1 | 1011.4 |
| 20260502031054 | 42 | 360 | 0.0 | 0.9 | 0.00 | 0.00 | 0.00 | 1 | 1011.4 |
| 20260502030955 | 42 | 360 | 0.0 | 0.9 | 0.00 | 0.00 | 0.00 | 1 | 1011.4 |
| 20260502030918 | 42 | 360 | 0.0 | 0.9 | 0.00 | 0.00 | 0.00 | 1 | 1011.4 |
| 20260502030712 | 42 | 360 | 0.0 | 0.9 | 0.00 | 0.00 | 0.00 | 1 | 1011.4 |
| 20260502030628 | 42 | 360 | 0.0 | 0.9 | 0.00 | 0.00 | 0.00 | 1 | 1011.4 |
| 20260502030523 | 42 | 360 | 0.0 | 0.0 | 0.00 | 0.00 | 0.00 | 1 | 1011.5 |
| 20260502030444 | 42 | 360 | 0.0 | 0.0 | 0.00 | 0.00 | 0.00 | 1 | 1011.5 |
| 20260502030314 | 42 | 360 | 0.0 | 0.0 | 0.00 | 0.00 | 0.00 | 1 | 1011.4 |
| 20260502030146 | 42 | 360 | 0.0 | 0.0 | 0.00 | 0.00 | 0.00 | 1 | 1011.4 |
| 20260502030107 | 42 | 360 | 0.0 | 0.0 | 0.00 | 0.00 | 0.00 | 1 | 1011.4 |
| 20260502030007 | 42 | 360 | 0.0 | 0.0 | 0.00 | 0.00 | 0.00 | 1 | 1011.4 |
| 20260502025923 | 42 | 360 | 0.0 | 0.0 | 0.00 | 0.00 | 0.00 | 1 | 1011.4 |
| 20260502025823 | 42 | 360 | 0.0 | 0.0 | 0.00 | 0.00 | 0.00 | 1 | 1011.4 |
| 20260502025653 | 42 | 360 | 0.0 | 0.0 | 0.00 | 0.00 | 0.00 | 1 | 1011.4 |
| 20260502025556 | 42 | 360 | 0.0 | 0.0 | 0.00 | 0.00 | 0.00 | 1 | 1011.4 |
| 20260502025513 | 42 | 360 | 0.0 | 0.0 | 0.00 | 0.00 | 0.00 | 1 | 1011.5 |
| 20260502025300 | 42 | 360 | 0.0 | 0.0 | 0.00 | 0.00 | 0.00 | 1 | 1011.5 |
| 20260502025221 | 42 | 360 | 0.0 | 0.0 | 0.00 | 0.00 | 0.00 | 1 | 1011.5 |
| 20260502025137 | 42 | 360 | 0.0 | 0.0 | 0.00 | 0.00 | 0.00 | 1 | 1011.5 |
| 20260502025038 | 42 | 360 | 0.0 | 0.0 | 0.00 | 0.00 | 0.00 | 1 | 1011.5 |
| 20260502024938 | 42 | 360 | 0.0 | 0.0 | 0.00 | 0.00 | 0.00 | 1 | 1011.5 |
| 20260502024744 | 42 | 360 | 0.0 | 0.0 | 0.00 | 0.00 | 0.00 | 1 | 1011.5 |
| 20260502024704 | 42 | 360 | 0.0 | 0.0 | 0.00 | 0.00 | 0.00 | 1 | 1011.5 |
| 20260502024609 | 42 | 360 | 0.0 | 0.0 | 0.00 | 0.00 | 0.00 | 1 | 1011.5 |
| 20260502024530 | 42 | 360 | 0.0 | 0.9 | 0.00 | 0.00 | 0.00 | 1 | 1011.5 |
| 20260502024342 | 42 | 360 | 0.0 | 0.9 | 0.00 | 0.00 | 0.00 | 1 | 1011.5 |
| 20260502024238 | 42 | 360 | 0.0 | 0.9 | 0.00 | 0.00 | 0.00 | 1 | 1011.5 |
| 20260502024122 | 42 | 360 | 0.0 | 0.9 | 0.00 | 0.00 | 0.00 | 1 | 1011.4 |
| 20260502024044 | 42 | 360 | 0.0 | 0.9 | 0.00 | 0.00 | 0.00 | 1 | 1011.4 |
| 20260502024005 | 42 | 360 | 0.0 | 0.9 | 0.00 | 0.00 | 0.00 | 1 | 1011.5 |
| 20260502023919 | 42 | 360 | 0.0 | 0.9 | 0.00 | 0.00 | 0.00 | 1 | 1011.4 |
| 20260502023841 | 42 | 360 | 0.0 | 1.7 | 0.00 | 0.00 | 0.00 | 1 | 1011.4 |
| 20260502023711 | 42 | 360 | 0.0 | 1.7 | 0.00 | 0.00 | 0.00 | 1 | 1011.4 |
| 20260502023626 | 42 | 360 | 0.0 | 1.7 | 0.00 | 0.00 | 0.00 | 1 | 1011.4 |
| 20260502023436 | 42 | 360 | 0.0 | 2.6 | 0.00 | 0.00 | 0.00 | 1 | 1011.5 |
| 20260502023352 | 42 | 360 | 0.0 | 2.6 | 0.00 | 0.00 | 0.00 | 1 | 1011.5 |
| 20260502023225 | 42 | 360 | 0.9 | 2.6 | 0.00 | 0.00 | 0.00 | 1 | 1011.4 |
| 20260502023126 | 42 | 360 | 0.9 | 2.6 | 0.00 | 0.00 | 0.00 | 1 | 1011.4 |
| 20260502022930 | 42 | 360 | 1.7 | 2.6 | 0.00 | 0.00 | 0.00 | 1 | 1011.4 |
| 20260502022852 | 42 | 360 | 1.7 | 2.6 | 0.00 | 0.00 | 0.00 | 1 | 1011.4 |
| 20260502022736 | 42 | 360 | 0.9 | 2.6 | 0.00 | 0.00 | 0.00 | 1 | 1011.4 |
| 20260502022657 | 42 | 360 | 0.0 | 1.7 | 0.00 | 0.00 | 0.00 | 1 | 1011.4 |
| 20260502022527 | 42 | 360 | 0.0 | 0.0 | 0.00 | 0.00 | 0.00 | 1 | 1011.5 |
| 20260502022420 | 42 | 360 | 0.0 | 0.0 | 0.00 | 0.00 | 0.00 | 1 | 1011.4 |
| 20260502022237 | 42 | 360 | 0.0 | 0.0 | 0.00 | 0.00 | 0.00 | 1 | 1011.4 |
| 20260502022136 | 42 | 360 | 0.0 | 0.0 | 0.00 | 0.00 | 0.00 | 1 | 1011.4 |
| 20260502022059 | 42 | 360 | 0.0 | 0.0 | 0.00 | 0.00 | 0.00 | 1 | 1011.4 |
| 20260502021942 | 42 | 360 | 0.0 | 0.0 | 0.00 | 0.00 | 0.00 | 1 | 1011.5 |
| 20260502021905 | 42 | 360 | 0.0 | 0.0 | 0.00 | 0.00 | 0.00 | 1 | 1011.5 |
| 20260502021818 | 42 | 360 | 0.0 | 0.0 | 0.00 | 0.00 | 0.00 | 1 | 1011.5 |
| 20260502021650 | 42 | 360 | 0.0 | 0.0 | 0.00 | 0.00 | 0.00 | 1 | 1011.5 |
| 20260502021550 | 42 | 360 | 0.0 | 0.0 | 0.00 | 0.00 | 0.00 | 1 | 1011.5 |
| 20260502021422 | 42 | 360 | 0.0 | 0.0 | 0.00 | 0.00 | 0.00 | 3 | 1011.6 |
| 20260502021335 | 42 | 360 | 0.0 | 0.0 | 0.00 | 0.00 | 0.00 | 5 | 1011.6 |
| 20260502021124 | 42 | 360 | 0.0 | 0.0 | 0.00 | 0.00 | 0.00 | 4 | 1011.6 |
| 20260502021039 | 42 | 360 | 0.0 | 0.0 | 0.00 | 0.00 | 0.00 | 4 | 1011.6 |
| 20260502020913 | 42 | 360 | 0.0 | 0.0 | 0.00 | 0.00 | 0.00 | 3 | 1011.6 |
| 20260502020834 | 42 | 360 | 0.0 | 0.0 | 0.00 | 0.00 | 0.00 | 3 | 1011.6 |
| 20260502020638 | 43 | 360 | 0.0 | 0.0 | 0.00 | 0.00 | 0.00 | 4 | 1011.6 |
| 20260502020600 | 43 | 360 | 0.0 | 0.0 | 0.00 | 0.00 | 0.00 | 4 | 1011.6 |
| 20260502020442 | 43 | 360 | 0.0 | 0.0 | 0.00 | 0.00 | 0.00 | 4 | 1011.6 |
| 20260502020404 | 43 | 360 | 0.0 | 0.0 | 0.00 | 0.00 | 0.00 | 4 | 1011.6 |
| 20260502020317 | 43 | 360 | 0.0 | 0.0 | 0.00 | 0.00 | 0.00 | 5 | 1011.6 |
| 20260502020127 | 43 | 360 | 0.0 | 0.0 | 0.00 | 0.00 | 0.00 | 4 | 1011.5 |
| 20260502020040 | 43 | 360 | 0.0 | 0.0 | 0.00 | 0.00 | 0.00 | 4 | 1011.4 |
| 20260502015947 | 43 | 360 | 0.0 | 0.9 | 0.00 | 0.00 | 0.00 | 4 | 1011.4 |
| 20260502015841 | 43 | 360 | 0.0 | 0.9 | 0.00 | 0.00 | 0.00 | 5 | 1011.5 |
| 20260502015801 | 43 | 360 | 0.0 | 0.9 | 0.00 | 0.00 | 0.00 | 6 | 1011.5 |
| 20260502015714 | 43 | 360 | 0.0 | 0.9 | 0.00 | 0.00 | 0.00 | 6 | 1011.5 |
| 20260502015452 | 43 | 360 | 0.0 | 1.7 | 0.00 | 0.00 | 0.00 | 6 | 1011.5 |
| 20260502015353 | 43 | 360 | 0.0 | 1.7 | 0.00 | 0.00 | 0.00 | 6 | 1011.5 |
| 20260502015314 | 43 | 360 | 0.0 | 1.7 | 0.00 | 0.00 | 0.00 | 7 | 1011.6 |
| 20260502015219 | 43 | 360 | 0.0 | 1.7 | 0.00 | 0.00 | 0.00 | 7 | 1011.6 |
| 20260502015140 | 43 | 360 | 0.0 | 1.7 | 0.00 | 0.00 | 0.00 | 7 | 1011.6 |
| 20260502015010 | 43 | 360 | 0.0 | 1.7 | 0.00 | 0.00 | 0.00 | 7 | 1011.5 |
| 20260502014925 | 43 | 360 | 0.0 | 1.7 | 0.00 | 0.00 | 0.00 | 7 | 1011.5 |
| 20260502014738 | 43 | 360 | 0.9 | 1.7 | 0.00 | 0.00 | 0.00 | 5 | 1011.5 |
| 20260502014653 | 43 | 360 | 0.9 | 1.7 | 0.00 | 0.00 | 0.00 | 5 | 1011.5 |
| 20260502014523 | 44 | 360 | 0.0 | 1.7 | 0.00 | 0.00 | 0.00 | 1 | 1011.6 |
| 20260502014444 | 44 | 360 | 0.0 | 1.7 | 0.00 | 0.00 | 0.00 | 1 | 1011.6 |
| 20260502014253 | 44 | 360 | 0.0 | 1.7 | 0.00 | 0.00 | 0.00 | 5 | 1011.6 |
| 20260502014126 | 44 | 360 | 0.9 | 1.7 | 0.00 | 0.00 | 0.00 | 10 | 1011.6 |
| 20260502014048 | 44 | 360 | 0.9 | 1.7 | 0.00 | 0.00 | 0.00 | 14 | 1011.6 |
| 20260502013932 | 44 | 360 | 0.0 | 1.7 | 0.00 | 0.00 | 0.00 | 18 | 1011.6 |
| 20260502013851 | 44 | 360 | 0.0 | 0.0 | 0.00 | 0.00 | 0.00 | 18 | 1011.6 |
| 20260502013732 | 44 | 360 | 0.0 | 0.0 | 0.00 | 0.00 | 0.00 | 19 | 1011.6 |
| 20260502013633 | 44 | 360 | 0.0 | 0.0 | 0.00 | 0.00 | 0.00 | 22 | 1011.6 |
| 20260502013534 | 44 | 360 | 0.0 | 0.0 | 0.00 | 0.00 | 0.00 | 23 | 1011.6 |
| 20260502013432 | 44 | 360 | 0.0 | 0.0 | 0.00 | 0.00 | 0.00 | 23 | 1011.6 |
| 20260502013334 | 44 | 360 | 0.0 | 0.0 | 0.00 | 0.00 | 0.00 | 23 | 1011.6 |
| 20260502013233 | 44 | 360 | 0.0 | 0.0 | 0.00 | 0.00 | 0.00 | 23 | 1011.6 |
| 20260502013134 | 44 | 360 | 0.0 | 0.0 | 0.00 | 0.00 | 0.00 | 22 | 1011.6 |
| 20260502013054 | 44 | 360 | 0.0 | 0.0 | 0.00 | 0.00 | 0.00 | 22 | 1011.6 |
| 20260502013013 | 44 | 360 | 0.0 | 0.0 | 0.00 | 0.00 | 0.00 | 20 | 1011.7 |
| 20260502012914 | 44 | 360 | 0.0 | 0.0 | 0.00 | 0.00 | 0.00 | 20 | 1011.6 |
| 20260502012832 | 44 | 360 | 0.0 | 0.0 | 0.00 | 0.00 | 0.00 | 20 | 1011.6 |
| 20260502012643 | 44 | 360 | 0.0 | 0.0 | 0.00 | 0.00 | 0.00 | 20 | 1011.6 |
| 20260502012536 | 45 | 360 | 0.0 | 0.0 | 0.00 | 0.00 | 0.00 | 20 | 1011.6 |
| 20260502012416 | 45 | 360 | 0.0 | 0.0 | 0.00 | 0.00 | 0.00 | 18 | 1011.6 |
| 20260502012343 | 45 | 360 | 0.0 | 0.0 | 0.00 | 0.00 | 0.00 | 17 | 1011.5 |
| 20260502012210 | 45 | 360 | 0.0 | 0.0 | 0.00 | 0.00 | 0.00 | 17 | 1011.5 |
| 20260502012123 | 45 | 360 | 0.0 | 0.0 | 0.00 | 0.00 | 0.00 | 16 | 1011.6 |
| 20260502011949 | 45 | 360 | 0.0 | 0.0 | 0.00 | 0.00 | 0.00 | 15 | 1011.6 |
| 20260502011848 | 45 | 360 | 0.0 | 0.0 | 0.00 | 0.00 | 0.00 | 15 | 1011.6 |
| 20260502011800 | 45 | 360 | 0.0 | 0.0 | 0.00 | 0.00 | 0.00 | 15 | 1011.6 |
| 20260502011628 | 45 | 360 | 0.0 | 0.0 | 0.00 | 0.00 | 0.00 | 14 | 1011.6 |
| 20260502011524 | 45 | 360 | 0.0 | 0.0 | 0.00 | 0.00 | 0.00 | 14 | 1011.6 |
| 20260502011332 | 45 | 360 | 0.0 | 0.0 | 0.00 | 0.00 | 0.00 | 17 | 1011.6 |
| 20260502011224 | 45 | 360 | 0.0 | 0.0 | 0.00 | 0.00 | 0.00 | 21 | 1011.6 |
| 20260502011132 | 45 | 360 | 0.0 | 0.0 | 0.00 | 0.00 | 0.00 | 23 | 1011.6 |
| 20260502011052 | 45 | 360 | 0.0 | 0.0 | 0.00 | 0.00 | 0.00 | 23 | 1011.6 |
| 20260502010942 | 45 | 360 | 0.0 | 0.0 | 0.00 | 0.00 | 0.00 | 25 | 1011.6 |
| 20260502010904 | 45 | 360 | 0.0 | 0.0 | 0.00 | 0.00 | 0.00 | 25 | 1011.6 |
| 20260502010808 | 45 | 360 | 0.0 | 0.0 | 0.00 | 0.00 | 0.00 | 26 | 1011.6 |
| 20260502010727 | 45 | 360 | 0.0 | 0.0 | 0.00 | 0.00 | 0.00 | 25 | 1011.6 |
| 20260502010535 | 45 | 360 | 0.0 | 0.0 | 0.00 | 0.00 | 0.00 | 26 | 1011.5 |
| 20260502010436 | 45 | 360 | 0.0 | 0.0 | 0.00 | 0.00 | 0.00 | 25 | 1011.5 |
| 20260502010340 | 45 | 360 | 0.0 | 0.0 | 0.00 | 0.00 | 0.00 | 25 | 1011.5 |
| 20260502010302 | 45 | 360 | 0.0 | 0.0 | 0.00 | 0.00 | 0.00 | 24 | 1011.5 |
| 20260502010123 | 45 | 360 | 0.0 | 0.0 | 0.00 | 0.00 | 0.00 | 24 | 1011.5 |
| 20260502010044 | 46 | 360 | 0.0 | 0.0 | 0.00 | 0.00 | 0.00 | 24 | 1011.5 |
| 20260502005914 | 46 | 360 | 0.0 | 0.0 | 0.00 | 0.00 | 0.00 | 28 | 1011.5 |
| 20260502005808 | 46 | 360 | 0.0 | 0.0 | 0.00 | 0.00 | 0.00 | 29 | 1011.5 |
| 20260502005639 | 46 | 360 | 0.0 | 0.0 | 0.00 | 0.00 | 0.00 | 33 | 1011.5 |
| 20260502005539 | 45 | 360 | 0.0 | 0.0 | 0.00 | 0.00 | 0.00 | 33 | 1011.4 |
| 20260502005327 | 46 | 360 | 0.0 | 0.0 | 0.00 | 0.00 | 0.00 | 34 | 1011.4 |
| 20260502005250 | 46 | 360 | 0.0 | 0.0 | 0.00 | 0.00 | 0.00 | 34 | 1011.4 |
| 20260502005134 | 46 | 360 | 0.0 | 0.0 | 0.00 | 0.00 | 0.00 | 33 | 1011.3 |
| 20260502005028 | 46 | 360 | 0.0 | 0.0 | 0.00 | 0.00 | 0.00 | 32 | 1011.3 |
| 20260502005000 | 46 | 360 | 0.0 | 0.0 | 0.00 | 0.00 | 0.00 | 31 | 1011.4 |
| 20260502004900 | 46 | 360 | 0.0 | 0.0 | 0.00 | 0.00 | 0.00 | 31 | 1011.4 |
| 20260502004816 | 46 | 360 | 0.0 | 0.0 | 0.00 | 0.00 | 0.00 | 31 | 1011.3 |
| 20260502004645 | 46 | 360 | 0.0 | 0.0 | 0.00 | 0.00 | 0.00 | 30 | 1011.2 |
| 20260502004546 | 46 | 360 | 0.0 | 0.0 | 0.00 | 0.00 | 0.00 | 29 | 1011.2 |
| 20260502004449 | 46 | 360 | 0.0 | 0.0 | 0.00 | 0.00 | 0.00 | 29 | 1011.1 |
| 20260502004333 | 46 | 360 | 0.0 | 0.0 | 0.00 | 0.00 | 0.00 | 29 | 1011.2 |
| 20260502004256 | 46 | 360 | 0.0 | 0.0 | 0.00 | 0.00 | 0.00 | 29 | 1011.2 |
| 20260502004138 | 46 | 360 | 0.0 | 0.0 | 0.00 | 0.00 | 0.00 | 30 | 1011.1 |
| 20260502004101 | 46 | 360 | 0.0 | 0.0 | 0.00 | 0.00 | 0.00 | 31 | 1011.1 |
| 20260502004015 | 46 | 360 | 0.0 | 0.0 | 0.00 | 0.00 | 0.00 | 31 | 1011.1 |
| 20260502003825 | 46 | 360 | 0.0 | 0.0 | 0.00 | 0.00 | 0.00 | 35 | 1011.1 |
| 20260502003741 | 46 | 360 | 0.0 | 0.0 | 0.00 | 0.00 | 0.00 | 35 | 1011.1 |
| 20260502003642 | 47 | 360 | 0.0 | 0.9 | 0.00 | 0.00 | 0.00 | 35 | 1011.1 |
| 20260502003547 | 47 | 360 | 0.0 | 0.9 | 0.00 | 0.00 | 0.00 | 35 | 1011.1 |
| 20260502003451 | 47 | 360 | 0.0 | 0.9 | 0.00 | 0.00 | 0.00 | 35 | 1011.0 |
| 20260502003233 | 47 | 360 | 0.0 | 0.9 | 0.00 | 0.00 | 0.00 | 34 | 1011.1 |
| 20260502003133 | 47 | 360 | 0.0 | 0.9 | 0.00 | 0.00 | 0.00 | 35 | 1011.0 |
| 20260502003038 | 47 | 360 | 0.0 | 0.9 | 0.00 | 0.00 | 0.00 | 35 | 1011.0 |
| 20260502002959 | 47 | 360 | 0.0 | 0.9 | 0.00 | 0.00 | 0.00 | 36 | 1011.0 |
| 20260502002808 | 47 | 360 | 0.0 | 0.9 | 0.00 | 0.00 | 0.00 | 35 | 1011.0 |
| 20260502002724 | 47 | 360 | 0.0 | 0.9 | 0.00 | 0.00 | 0.00 | 35 | 1011.0 |
| 20260502002535 | 47 | 360 | 0.0 | 0.9 | 0.00 | 0.00 | 0.00 | 34 | 1011.0 |
| 20260502002449 | 47 | 360 | 0.0 | 0.9 | 0.00 | 0.00 | 0.00 | 33 | 1011.0 |
| 20260502002245 | 47 | 360 | 0.0 | 0.9 | 0.00 | 0.00 | 0.00 | 38 | 1011.0 |
| 20260502002150 | 47 | 360 | 0.0 | 0.9 | 0.00 | 0.00 | 0.00 | 38 | 1011.0 |
| 20260502002111 | 47 | 360 | 0.0 | 0.9 | 0.00 | 0.00 | 0.00 | 39 | 1011.0 |
| 20260502002015 | 48 | 360 | 0.0 | 0.0 | 0.00 | 0.00 | 0.00 | 40 | 1011.0 |
| 20260502001936 | 48 | 360 | 0.0 | 0.0 | 0.00 | 0.00 | 0.00 | 42 | 1010.9 |
| 20260502001806 | 48 | 360 | 0.0 | 0.0 | 0.00 | 0.00 | 0.00 | 44 | 1010.9 |
| 20260502001721 | 48 | 360 | 0.0 | 0.0 | 0.00 | 0.00 | 0.00 | 45 | 1010.9 |
| 20260502001549 | 48 | 360 | 0.0 | 0.0 | 0.00 | 0.00 | 0.00 | 47 | 1010.8 |
| 20260502001450 | 48 | 360 | 0.0 | 0.0 | 0.00 | 0.00 | 0.00 | 47 | 1010.8 |
| 20260502001353 | 48 | 360 | 0.0 | 0.0 | 0.00 | 0.00 | 0.00 | 47 | 1010.9 |
| 20260502001314 | 48 | 360 | 0.0 | 0.0 | 0.00 | 0.00 | 0.00 | 47 | 1010.9 |
| 20260502001144 | 48 | 360 | 0.0 | 0.0 | 0.00 | 0.00 | 0.00 | 47 | 1010.8 |
| 20260502001037 | 48 | 360 | 0.0 | 0.0 | 0.00 | 0.00 | 0.00 | 47 | 1010.8 |
| 20260502000908 | 48 | 360 | 0.0 | 0.0 | 0.00 | 0.00 | 0.00 | 47 | 1010.8 |
| 20260502000834 | 48 | 360 | 0.0 | 0.0 | 0.00 | 0.00 | 0.00 | 47 | 1010.8 |
| 20260502000638 | 48 | 360 | 0.0 | 0.9 | 0.00 | 0.00 | 0.00 | 48 | 1010.7 |
| 20260502000539 | 48 | 360 | 0.0 | 0.9 | 0.00 | 0.00 | 0.00 | 49 | 1010.7 |
| 20260502000424 | 49 | 360 | 0.0 | 0.9 | 0.00 | 0.00 | 0.00 | 49 | 1010.6 |
| 20260502000344 | 49 | 360 | 0.0 | 0.9 | 0.00 | 0.00 | 0.00 | 49 | 1010.7 |
| 20260502000226 | 49 | 360 | 0.0 | 0.9 | 0.00 | 0.00 | 0.00 | 50 | 1010.6 |
| 20260502000147 | 49 | 360 | 0.0 | 0.9 | 0.00 | 0.00 | 0.00 | 50 | 1010.6 |
| 20260502000108 | 49 | 360 | 0.0 | 0.9 | 0.00 | 0.00 | 0.00 | 50 | 1010.6 |
| 20260501235929 | 49 | 360 | 0.0 | 0.0 | 0.00 | 0.00 | 0.00 | 50 | 1010.6 |
| 20260501235856 | 49 | 360 | 0.0 | 0.0 | 0.00 | 0.00 | 0.00 | 50 | 1010.6 |
| 20260501235818 | 49 | 360 | 0.0 | 0.0 | 0.00 | 0.00 | 0.00 | 51 | 1010.6 |
| 20260501235722 | 49 | 360 | 0.0 | 0.9 | 0.00 | 0.00 | 0.00 | 51 | 1010.6 |
| 20260501235643 | 49 | 360 | 0.0 | 0.9 | 0.00 | 0.00 | 0.00 | 52 | 1010.6 |
| 20260501235438 | 49 | 360 | 0.0 | 0.9 | 0.00 | 0.00 | 0.00 | 53 | 1010.6 |
| 20260501235339 | 49 | 360 | 0.0 | 0.9 | 0.00 | 0.00 | 0.00 | 53 | 1010.6 |
| 20260501235231 | 49 | 360 | 0.0 | 0.9 | 0.00 | 0.00 | 0.00 | 53 | 1010.6 |
| 20260501235154 | 50 | 360 | 0.0 | 0.9 | 0.00 | 0.00 | 0.00 | 53 | 1010.6 |
| 20260501235116 | 50 | 360 | 0.0 | 0.9 | 0.00 | 0.00 | 0.00 | 54 | 1010.6 |
| 20260501234938 | 50 | 360 | 0.0 | 0.9 | 0.00 | 0.00 | 0.00 | 54 | 1010.6 |
| 20260501234905 | 50 | 360 | 0.0 | 0.9 | 0.00 | 0.00 | 0.00 | 54 | 1010.6 |
| 20260501234818 | 50 | 360 | 0.0 | 1.7 | 0.00 | 0.00 | 0.00 | 53 | 1010.5 |
| 20260501234629 | 50 | 360 | 0.0 | 1.7 | 0.00 | 0.00 | 0.00 | 54 | 1010.5 |
| 20260501234543 | 50 | 360 | 0.0 | 1.7 | 0.00 | 0.00 | 0.00 | 53 | 1010.5 |
| 20260501234413 | 50 | 360 | 0.0 | 1.7 | 0.00 | 0.00 | 0.00 | 53 | 1010.5 |
| 20260501234334 | 50 | 360 | 0.0 | 1.7 | 0.00 | 0.00 | 0.00 | 52 | 1010.4 |
| 20260501234204 | 50 | 360 | 0.9 | 1.7 | 0.00 | 0.00 | 0.00 | 49 | 1010.4 |
| 20260501234037 | 50 | 360 | 0.9 | 1.7 | 0.00 | 0.00 | 0.00 | 49 | 1010.4 |
| 20260501233959 | 50 | 360 | 0.9 | 1.7 | 0.00 | 0.00 | 0.00 | 50 | 1010.4 |
| 20260501233827 | 50 | 360 | 0.9 | 2.6 | 0.00 | 0.00 | 0.00 | 51 | 1010.4 |
| 20260501233741 | 50 | 360 | 0.9 | 2.6 | 0.00 | 0.00 | 0.00 | 50 | 1010.4 |
| 20260501233613 | 50 | 360 | 0.9 | 2.6 | 0.00 | 0.00 | 0.00 | 49 | 1010.4 |
| 20260501233534 | 50 | 360 | 0.9 | 3.5 | 0.00 | 0.00 | 0.00 | 49 | 1010.4 |
| 20260501233337 | 50 | 360 | 0.0 | 3.5 | 0.00 | 0.00 | 0.00 | 50 | 1010.4 |
| 20260501233259 | 50 | 360 | 0.9 | 3.5 | 0.00 | 0.00 | 0.00 | 50 | 1010.4 |
| 20260501233144 | 51 | 360 | 0.9 | 3.5 | 0.00 | 0.00 | 0.00 | 48 | 1010.4 |
| 20260501233045 | 51 | 360 | 0.9 | 3.5 | 0.00 | 0.00 | 0.00 | 49 | 1010.4 |
| 20260501232941 | 51 | 360 | 0.9 | 3.5 | 0.00 | 0.00 | 0.00 | 48 | 1010.4 |
| 20260501232829 | 51 | 360 | 1.7 | 3.5 | 0.00 | 0.00 | 0.00 | 47 | 1010.3 |
| 20260501232750 | 51 | 360 | 0.9 | 3.5 | 0.00 | 0.00 | 0.00 | 48 | 1010.3 |
| 20260501232623 | 51 | 349 | 0.9 | 3.5 | 0.00 | 0.00 | 0.00 | 48 | 1010.3 |